Time,TemperatureF,DewpointF,PressureIn,WindDirection,WindDirectionDegrees,WindSpeedMPH,WindSpeedGustMPH,Humidity,HourlyPrecipIn,Conditions,Clouds,dailyrainin,SoftwareType,DateUTC
2013-01-04 00:00:00,14.3,9.8,30.29,WNW,296,0.0,2.0,82,0.00,,---,0.02,VWS V14.01,2013-01-04 06:00:00,
2013-01-04 00:02:00,14.2,9.7,30.29,WNW,296,0.0,0.0,82,0.00,,---,0.00,VWS V14.01,2013-01-04 06:02:00,
2013-01-04 00:04:00,14.2,9.7,30.28,WNW,296,0.0,0.0,82,0.00,,---,0.00,VWS V14.01,2013-01-04 06:04:00,
2013-01-04 00:05:00,14.2,9.7,30.28,WNW,296,0.0,0.0,82,0.00,,---,0.00,VWS V14.01,2013-01-04 06:05:00,
2013-01-04 00:07:00,14.2,9.7,30.28,WNW,296,0.0,0.0,82,0.00,,---,0.00,VWS V14.01,2013-01-04 06:07:00,
2013-01-04 00:08:00,14.2,9.7,30.28,WNW,296,0.0,0.0,82,0.00,,---,0.00,VWS V14.01,2013-01-04 06:08:00,
2013-01-04 00:09:00,14.3,9.8,30.28,WNW,296,0.0,0.0,82,0.00,,---,0.00,VWS V14.01,2013-01-04 06:09:00,
2013-01-04 00:10:00,14.3,9.8,30.28,WNW,296,0.0,0.0,82,0.00,,---,0.00,VWS V14.01,2013-01-04 06:10:00,
2013-01-04 00:12:00,14.3,10.1,30.28,WNW,296,0.0,0.0,83,0.00,,---,0.00,VWS V14.01,2013-01-04 06:12:00,
2013-01-04 00:14:00,14.3,10.1,30.28,WNW,296,0.0,0.0,83,0.00,,---,0.00,VWS V14.01,2013-01-04 06:14:00,
2013-01-04 00:15:00,14.3,10.1,30.28,WNW,296,0.0,0.0,83,0.00,,---,0.00,VWS V14.01,2013-01-04 06:15:00,
2013-01-04 00:18:00,14.4,10.2,30.28,WNW,296,0.0,0.0,83,0.00,,---,0.00,VWS V14.01,2013-01-04 06:18:00,
2013-01-04 00:19:00,14.4,10.2,30.28,WNW,296,0.0,0.0,83,0.00,,---,0.00,VWS V14.01,2013-01-04 06:19:00,
2013-01-04 00:20:00,14.4,10.2,30.28,WNW,296,0.0,0.0,83,0.00,,---,0.00,VWS V14.01,2013-01-04 06:20:00,
2013-01-04 00:23:00,14.3,10.1,30.28,WNW,296,0.0,0.0,83,0.00,,---,0.00,VWS V14.01,2013-01-04 06:23:00,
2013-01-04 00:24:00,14.2,10.0,30.28,WNW,296,0.0,0.0,83,0.00,,---,0.00,VWS V14.01,2013-01-04 06:24:00,
2013-01-04 00:25:00,14.2,10.0,30.28,WNW,296,0.0,0.0,83,0.00,,---,0.00,VWS V14.01,2013-01-04 06:25:00,
2013-01-04 00:28:00,14.1,9.9,30.28,WNW,296,0.0,0.0,83,0.00,,---,0.00,VWS V14.01,2013-01-04 06:28:00,
2013-01-04 00:29:00,14.0,9.8,30.28,WNW,296,0.0,0.0,83,0.00,,---,0.00,VWS V14.01,2013-01-04 06:29:00,
2013-01-04 00:30:00,14.0,9.8,30.28,WNW,296,0.0,0.0,83,0.00,,---,0.00,VWS V14.01,2013-01-04 06:30:00,
2013-01-04 00:33:00,14.0,9.8,30.29,WNW,296,0.0,0.0,83,0.00,,---,0.00,VWS V14.01,2013-01-04 06:33:00,
2013-01-04 00:35:00,13.9,9.7,30.29,WNW,296,0.0,0.0,83,0.00,,---,0.00,VWS V14.01,2013-01-04 06:35:00,
2013-01-04 00:38:00,13.9,9.7,30.29,WNW,296,0.0,0.0,83,0.00,,---,0.00,VWS V14.01,2013-01-04 06:38:00,
2013-01-04 00:40:00,13.8,9.6,30.29,WNW,296,0.0,0.0,83,0.00,,---,0.00,VWS V14.01,2013-01-04 06:40:00,
2013-01-04 00:43:00,13.7,9.5,30.29,WNW,296,0.0,0.0,83,0.00,,---,0.00,VWS V14.01,2013-01-04 06:43:00,
2013-01-04 00:45:00,13.5,9.3,30.29,WNW,296,2.0,2.0,83,0.00,,---,0.00,VWS V14.01,2013-01-04 06:45:00,
2013-01-04 00:48:00,12.7,8.0,30.29,WNW,296,0.0,2.0,81,0.00,,---,0.00,VWS V14.01,2013-01-04 06:48:00,
2013-01-04 00:50:00,12.5,7.8,30.29,WNW,296,0.0,2.0,81,0.00,,---,0.00,VWS V14.01,2013-01-04 06:50:00,
2013-01-04 00:53:00,12.4,8.0,30.29,WNW,296,0.0,2.0,82,0.00,,---,0.00,VWS V14.01,2013-01-04 06:53:00,
2013-01-04 00:55:00,12.3,7.9,30.29,WNW,296,0.0,2.0,82,0.00,,---,0.00,VWS V14.01,2013-01-04 06:55:00,
2013-01-04 00:58:00,12.2,7.8,30.29,WNW,296,0.0,2.0,82,0.00,,---,0.00,VWS V14.01,2013-01-04 06:58:00,
2013-01-04 01:00:00,12.2,7.8,30.29,WNW,296,0.0,2.0,82,0.00,,---,0.00,VWS V14.01,2013-01-04 07:00:00,
2013-01-04 01:01:00,12.2,7.8,30.29,WNW,296,0.0,0.0,82,0.00,,---,0.00,VWS V14.01,2013-01-04 07:01:00,
2013-01-04 01:03:00,12.0,7.6,30.30,WNW,296,0.0,0.0,82,0.00,,---,0.00,VWS V14.01,2013-01-04 07:03:00,
2013-01-04 01:05:00,12.0,7.8,30.29,WNW,296,0.0,0.0,83,0.00,,---,0.00,VWS V14.01,2013-01-04 07:05:00,
2013-01-04 01:06:00,12.0,7.8,30.30,WNW,296,0.0,0.0,83,0.00,,---,0.00,VWS V14.01,2013-01-04 07:06:00,
2013-01-04 01:08:00,11.9,7.7,30.30,WNW,296,0.0,0.0,83,0.00,,---,0.00,VWS V14.01,2013-01-04 07:08:00,
2013-01-04 01:10:00,11.9,7.7,30.30,WNW,296,0.0,0.0,83,0.00,,---,0.00,VWS V14.01,2013-01-04 07:10:00,
2013-01-04 01:11:00,11.9,7.7,30.30,WNW,296,0.0,0.0,83,0.00,,---,0.00,VWS V14.01,2013-01-04 07:11:00,
2013-01-04 01:13:00,11.7,7.6,30.30,WNW,296,0.0,0.0,83,0.00,,---,0.00,VWS V14.01,2013-01-04 07:13:00,
2013-01-04 01:15:00,11.5,7.3,30.30,WNW,296,0.0,0.0,83,0.00,,---,0.00,VWS V14.01,2013-01-04 07:15:00,
2013-01-04 01:16:00,11.5,7.3,30.30,WNW,296,0.0,0.0,83,0.00,,---,0.00,VWS V14.01,2013-01-04 07:16:00,
2013-01-04 01:18:00,11.4,7.2,30.30,WNW,296,0.0,0.0,83,0.00,,---,0.00,VWS V14.01,2013-01-04 07:18:00,
2013-01-04 01:20:00,11.4,7.2,30.30,WNW,296,0.0,0.0,83,0.00,,---,0.00,VWS V14.01,2013-01-04 07:20:00,
2013-01-04 01:21:00,11.4,7.5,30.30,WNW,296,0.0,0.0,84,0.00,,---,0.00,VWS V14.01,2013-01-04 07:21:00,
2013-01-04 01:24:00,11.3,7.4,30.30,WNW,296,0.0,0.0,84,0.00,,---,0.00,VWS V14.01,2013-01-04 07:24:00,
2013-01-04 01:25:00,11.3,7.4,30.30,WNW,296,0.0,0.0,84,0.00,,---,0.00,VWS V14.01,2013-01-04 07:25:00,
2013-01-04 01:26:00,11.3,7.4,30.30,WNW,296,0.0,0.0,84,0.00,,---,0.00,VWS V14.01,2013-01-04 07:26:00,
2013-01-04 01:29:00,11.3,7.4,30.30,WNW,296,0.0,0.0,84,0.00,,---,0.00,VWS V14.01,2013-01-04 07:29:00,
2013-01-04 01:30:00,11.3,7.4,30.30,WNW,296,0.0,0.0,84,0.00,,---,0.00,VWS V14.01,2013-01-04 07:30:00,
2013-01-04 01:31:00,11.3,7.4,30.30,WNW,296,0.0,0.0,84,0.00,,---,0.00,VWS V14.01,2013-01-04 07:31:00,
2013-01-04 01:34:00,11.3,7.4,30.30,WNW,296,0.0,0.0,84,0.00,,---,0.00,VWS V14.01,2013-01-04 07:34:00,
2013-01-04 01:36:00,11.4,7.5,30.30,WNW,296,0.0,0.0,84,0.00,,---,0.00,VWS V14.01,2013-01-04 07:36:00,
2013-01-04 01:39:00,11.6,8.0,30.30,WNW,296,0.0,0.0,85,0.00,,---,0.00,VWS V14.01,2013-01-04 07:39:00,
2013-01-04 01:41:00,11.6,8.0,30.30,WNW,296,0.0,0.0,85,0.00,,---,0.00,VWS V14.01,2013-01-04 07:41:00,
2013-01-04 01:44:00,11.8,8.2,30.30,WNW,296,0.0,0.0,85,0.00,,---,0.00,VWS V14.01,2013-01-04 07:44:00,
2013-01-04 01:46:00,11.8,8.2,30.30,WNW,296,0.0,0.0,85,0.00,,---,0.00,VWS V14.01,2013-01-04 07:46:00,
2013-01-04 01:47:00,11.8,8.2,30.31,WNW,296,0.0,0.0,85,0.00,,---,0.00,VWS V14.01,2013-01-04 07:47:00,
2013-01-04 01:49:00,11.8,8.2,30.30,WNW,296,0.0,0.0,85,0.00,,---,0.00,VWS V14.01,2013-01-04 07:49:00,
2013-01-04 01:51:00,11.8,8.2,30.31,WNW,296,0.0,0.0,85,0.00,,---,0.00,VWS V14.01,2013-01-04 07:51:00,
2013-01-04 01:52:00,11.8,8.2,30.31,WNW,296,0.0,0.0,85,0.00,,---,0.00,VWS V14.01,2013-01-04 07:52:00,
2013-01-04 01:54:00,11.7,8.1,30.31,WNW,296,0.0,0.0,85,0.00,,---,0.00,VWS V14.01,2013-01-04 07:54:00,
2013-01-04 01:56:00,11.6,8.0,30.31,WNW,296,0.0,0.0,85,0.00,,---,0.00,VWS V14.01,2013-01-04 07:56:00,
2013-01-04 01:57:00,11.6,8.0,30.31,WNW,296,0.0,0.0,85,0.00,,---,0.00,VWS V14.01,2013-01-04 07:57:00,
2013-01-04 01:59:00,11.6,8.0,30.31,WNW,296,0.0,0.0,85,0.00,,---,0.00,VWS V14.01,2013-01-04 07:59:00,
2013-01-04 02:01:00,11.6,8.0,30.31,WNW,296,0.0,0.0,85,0.00,,---,0.00,VWS V14.01,2013-01-04 08:01:00,
2013-01-04 02:02:00,11.5,7.9,30.31,WNW,296,0.0,0.0,85,0.00,,---,0.00,VWS V14.01,2013-01-04 08:02:00,
2013-01-04 02:04:00,11.6,8.0,30.31,WNW,296,0.0,0.0,85,0.00,,---,0.00,VWS V14.01,2013-01-04 08:04:00,
2013-01-04 02:06:00,11.6,8.0,30.31,WNW,296,0.0,0.0,85,0.00,,---,0.00,VWS V14.01,2013-01-04 08:06:00,
2013-01-04 02:07:00,11.6,8.0,30.31,WNW,296,0.0,0.0,85,0.00,,---,0.00,VWS V14.01,2013-01-04 08:07:00,
2013-01-04 02:09:00,11.6,8.0,30.31,WNW,296,0.0,0.0,85,0.00,,---,0.00,VWS V14.01,2013-01-04 08:09:00,
2013-01-04 02:11:00,11.6,8.0,30.31,WNW,296,0.0,0.0,85,0.00,,---,0.00,VWS V14.01,2013-01-04 08:11:00,
2013-01-04 02:12:00,11.6,8.0,30.31,WNW,296,0.0,0.0,85,0.00,,---,0.00,VWS V14.01,2013-01-04 08:12:00,
2013-01-04 02:15:00,11.8,8.4,30.31,WNW,296,0.0,0.0,86,0.00,,---,0.00,VWS V14.01,2013-01-04 08:15:00,
2013-01-04 02:16:00,11.8,8.4,30.31,WNW,296,0.0,0.0,86,0.00,,---,0.00,VWS V14.01,2013-01-04 08:16:00,
2013-01-04 02:17:00,11.9,8.5,30.31,WNW,296,0.0,0.0,86,0.00,,---,0.00,VWS V14.01,2013-01-04 08:17:00,
2013-01-04 02:20:00,11.9,8.3,30.31,WNW,296,2.0,2.0,85,0.00,,---,0.00,VWS V14.01,2013-01-04 08:20:00,
2013-01-04 02:21:00,12.0,8.4,30.31,WNW,296,1.0,2.0,85,0.00,,---,0.00,VWS V14.01,2013-01-04 08:21:00,
2013-01-04 02:22:00,12.0,8.4,30.31,WNW,296,0.0,2.0,85,0.00,,---,0.00,VWS V14.01,2013-01-04 08:22:00,
2013-01-04 02:25:00,12.1,8.5,30.31,WNW,296,0.0,2.0,85,0.00,,---,0.00,VWS V14.01,2013-01-04 08:25:00,
2013-01-04 02:26:00,12.1,8.5,30.31,WNW,296,0.0,2.0,85,0.00,,---,0.00,VWS V14.01,2013-01-04 08:26:00,
2013-01-04 02:27:00,12.1,8.5,30.31,WNW,296,0.0,2.0,85,0.00,,---,0.00,VWS V14.01,2013-01-04 08:27:00,
2013-01-04 02:30:00,11.9,8.3,30.31,WNW,296,0.0,2.0,85,0.00,,---,0.00,VWS V14.01,2013-01-04 08:30:00,
2013-01-04 02:31:00,11.9,8.3,30.31,WNW,296,0.0,0.0,85,0.00,,---,0.00,VWS V14.01,2013-01-04 08:31:00,
2013-01-04 02:32:00,11.9,8.3,30.31,WNW,296,0.0,0.0,85,0.00,,---,0.00,VWS V14.01,2013-01-04 08:32:00,
2013-01-04 02:35:00,11.8,7.9,30.31,WNW,296,0.0,0.0,84,0.00,,---,0.00,VWS V14.01,2013-01-04 08:35:00,
2013-01-04 02:36:00,11.8,7.9,30.31,WNW,296,0.0,0.0,84,0.00,,---,0.00,VWS V14.01,2013-01-04 08:36:00,
2013-01-04 02:37:00,11.8,7.9,30.31,WNW,296,0.0,0.0,84,0.00,,---,0.00,VWS V14.01,2013-01-04 08:37:00,
2013-01-04 02:38:00,11.8,7.9,30.31,WNW,296,0.0,0.0,84,0.00,,---,0.00,VWS V14.01,2013-01-04 08:38:00,
2013-01-04 02:40:00,11.8,7.9,30.31,WNW,296,0.0,0.0,84,0.00,,---,0.00,VWS V14.01,2013-01-04 08:40:00,
2013-01-04 02:41:00,11.8,7.9,30.31,WNW,296,0.0,0.0,84,0.00,,---,0.00,VWS V14.01,2013-01-04 08:41:00,
2013-01-04 02:42:00,11.8,7.9,30.31,WNW,296,0.0,0.0,84,0.00,,---,0.00,VWS V14.01,2013-01-04 08:42:00,
2013-01-04 02:43:00,11.8,7.9,30.31,WNW,296,0.0,0.0,84,0.00,,---,0.00,VWS V14.01,2013-01-04 08:43:00,
2013-01-04 02:46:00,11.8,7.9,30.31,WNW,296,0.0,0.0,84,0.00,,---,0.00,VWS V14.01,2013-01-04 08:46:00,
2013-01-04 02:48:00,11.8,7.9,30.31,WNW,296,0.0,0.0,84,0.00,,---,0.00,VWS V14.01,2013-01-04 08:48:00,
2013-01-04 02:51:00,11.9,8.0,30.31,WNW,296,0.0,0.0,84,0.00,,---,0.00,VWS V14.01,2013-01-04 08:51:00,
2013-01-04 02:52:00,11.9,8.0,30.31,WNW,296,0.0,0.0,84,0.00,,---,0.00,VWS V14.01,2013-01-04 08:52:00,
2013-01-04 02:53:00,11.9,8.0,30.31,WNW,296,0.0,0.0,84,0.00,,---,0.00,VWS V14.01,2013-01-04 08:53:00,
2013-01-04 02:56:00,12.0,8.1,30.31,WNW,296,0.0,0.0,84,0.00,,---,0.00,VWS V14.01,2013-01-04 08:56:00,
2013-01-04 02:57:00,12.0,8.1,30.31,WNW,296,0.0,0.0,84,0.00,,---,0.00,VWS V14.01,2013-01-04 08:57:00,
2013-01-04 02:58:00,12.0,8.1,30.31,WNW,296,0.0,0.0,84,0.00,,---,0.00,VWS V14.01,2013-01-04 08:58:00,
2013-01-04 03:01:00,12.5,9.4,30.31,West,270,1.0,1.0,87,0.00,,---,0.00,VWS V14.01,2013-01-04 09:01:00,
2013-01-04 03:02:00,12.5,9.4,30.31,West,270,1.0,1.0,87,0.00,,---,0.00,VWS V14.01,2013-01-04 09:02:00,
2013-01-04 03:03:00,12.5,9.4,30.31,West,270,0.0,1.0,87,0.00,,---,0.00,VWS V14.01,2013-01-04 09:03:00,
2013-01-04 03:06:00,12.5,9.4,30.31,West,273,1.0,1.0,87,0.00,,---,0.00,VWS V14.01,2013-01-04 09:06:00,
2013-01-04 03:07:00,12.4,9.3,30.31,West,265,1.0,1.0,87,0.00,,---,0.00,VWS V14.01,2013-01-04 09:07:00,
2013-01-04 03:08:00,12.4,9.0,30.31,West,264,0.0,1.0,86,0.00,,---,0.00,VWS V14.01,2013-01-04 09:08:00,
2013-01-04 03:11:00,12.1,8.7,30.31,WSW,257,2.0,2.0,86,0.00,,---,0.00,VWS V14.01,2013-01-04 09:11:00,
2013-01-04 03:12:00,12.0,8.6,30.31,WSW,255,0.0,2.0,86,0.00,,---,0.00,VWS V14.01,2013-01-04 09:12:00,
2013-01-04 03:13:00,12.0,8.6,30.31,WSW,255,1.0,2.0,86,0.00,,---,0.00,VWS V14.01,2013-01-04 09:13:00,
2013-01-04 03:16:00,11.8,8.4,30.30,WSW,237,0.0,2.0,86,0.00,,---,0.00,VWS V14.01,2013-01-04 09:16:00,
2013-01-04 03:18:00,11.6,8.2,30.31,SW,232,1.0,2.0,86,0.00,,---,0.00,VWS V14.01,2013-01-04 09:18:00,
2013-01-04 03:21:00,11.1,7.5,30.31,SW,222,0.0,2.0,85,0.00,,---,0.00,VWS V14.01,2013-01-04 09:21:00,
2013-01-04 03:23:00,11.0,7.4,30.30,SW,222,0.0,2.0,85,0.00,,---,0.00,VWS V14.01,2013-01-04 09:23:00,
2013-01-04 03:26:00,10.8,7.4,30.31,SW,226,2.0,2.0,86,0.00,,---,0.00,VWS V14.01,2013-01-04 09:26:00,
2013-01-04 03:28:00,10.7,7.3,30.30,SW,219,2.0,2.0,86,0.00,,---,0.00,VWS V14.01,2013-01-04 09:28:00,
2013-01-04 03:32:00,10.5,7.2,30.30,SW,217,2.0,2.0,86,0.00,,---,0.00,VWS V14.01,2013-01-04 09:32:00,
2013-01-04 03:33:00,10.5,7.4,30.30,SW,223,2.0,2.0,87,0.00,,---,0.00,VWS V14.01,2013-01-04 09:33:00,
2013-01-04 03:37:00,10.3,7.2,30.30,South,187,2.0,3.0,87,0.00,,---,0.00,VWS V14.01,2013-01-04 09:37:00,
2013-01-04 03:38:00,10.4,7.6,30.30,SW,230,2.0,3.0,88,0.00,,---,0.00,VWS V14.01,2013-01-04 09:38:00,
2013-01-04 03:39:00,10.4,7.6,30.30,SW,219,1.0,3.0,88,0.00,,---,0.00,VWS V14.01,2013-01-04 09:39:00,
2013-01-04 03:42:00,10.5,7.7,30.30,SW,230,1.0,3.0,88,0.00,,---,0.00,VWS V14.01,2013-01-04 09:42:00,
2013-01-04 03:43:00,10.6,7.8,30.30,SW,227,3.0,3.0,88,0.00,,---,0.00,VWS V14.01,2013-01-04 09:43:00,
2013-01-04 03:44:00,10.7,7.8,30.30,SSW,211,2.0,3.0,88,0.00,,---,0.00,VWS V14.01,2013-01-04 09:44:00,
2013-01-04 03:47:00,10.8,7.9,30.30,SW,229,2.0,3.0,88,0.00,,---,0.00,VWS V14.01,2013-01-04 09:47:00,
2013-01-04 03:48:00,10.8,7.9,30.30,SW,227,2.0,3.0,88,0.00,,---,0.00,VWS V14.01,2013-01-04 09:48:00,
2013-01-04 03:49:00,10.9,8.1,30.30,SW,222,3.0,3.0,88,0.00,,---,0.00,VWS V14.01,2013-01-04 09:49:00,
2013-01-04 03:52:00,11.0,8.1,30.30,WSW,237,4.0,4.0,88,0.00,,---,0.00,VWS V14.01,2013-01-04 09:52:00,
2013-01-04 03:53:00,11.1,8.2,30.30,WSW,242,2.0,4.0,88,0.00,,---,0.00,VWS V14.01,2013-01-04 09:53:00,
2013-01-04 03:54:00,11.1,8.2,30.29,WSW,252,2.0,4.0,88,0.00,,---,0.00,VWS V14.01,2013-01-04 09:54:00,
2013-01-04 03:58:00,11.2,8.4,30.30,WSW,254,3.0,5.0,88,0.00,,---,0.00,VWS V14.01,2013-01-04 09:58:00,
2013-01-04 03:59:00,11.3,8.2,30.30,SW,217,2.0,5.0,87,0.00,,---,0.00,VWS V14.01,2013-01-04 09:59:00,
2013-01-04 04:03:00,11.3,8.2,30.30,WSW,250,4.0,4.0,87,0.00,,---,0.00,VWS V14.01,2013-01-04 10:03:00,
2013-01-04 04:04:00,11.3,8.2,30.30,WSW,252,3.0,4.0,87,0.00,,---,0.00,VWS V14.01,2013-01-04 10:04:00,
2013-01-04 04:08:00,11.3,8.2,30.30,WSW,252,1.0,4.0,87,0.00,,---,0.00,VWS V14.01,2013-01-04 10:08:00,
2013-01-04 04:09:00,11.3,8.2,30.30,WSW,248,3.0,4.0,87,0.00,,---,0.00,VWS V14.01,2013-01-04 10:09:00,
2013-01-04 04:10:00,11.3,8.2,30.30,WSW,256,2.0,4.0,87,0.00,,---,0.00,VWS V14.01,2013-01-04 10:10:00,
2013-01-04 04:13:00,11.3,8.2,30.30,WSW,242,4.0,4.0,87,0.00,,---,0.00,VWS V14.01,2013-01-04 10:13:00,
2013-01-04 04:14:00,11.3,8.2,30.30,West,274,4.0,4.0,87,0.00,,---,0.00,VWS V14.01,2013-01-04 10:14:00,
2013-01-04 04:15:00,11.3,8.2,30.30,SW,225,5.0,5.0,87,0.00,,---,0.00,VWS V14.01,2013-01-04 10:15:00,
2013-01-04 04:18:00,11.3,8.2,30.30,SW,215,4.0,5.0,87,0.00,,---,0.00,VWS V14.01,2013-01-04 10:18:00,
2013-01-04 04:19:00,11.3,8.2,30.30,SW,226,4.0,5.0,87,0.00,,---,0.00,VWS V14.01,2013-01-04 10:19:00,
2013-01-04 04:20:00,11.3,8.2,30.30,SW,232,3.0,5.0,87,0.00,,---,0.00,VWS V14.01,2013-01-04 10:20:00,
2013-01-04 04:23:00,11.2,8.1,30.30,WSW,241,1.0,5.0,87,0.00,,---,0.00,VWS V14.01,2013-01-04 10:23:00,
2013-01-04 04:24:00,11.1,8.0,30.30,WSW,252,1.0,5.0,87,0.00,,---,0.00,VWS V14.01,2013-01-04 10:24:00,
2013-01-04 04:25:00,11.0,7.9,30.30,WNW,290,1.0,5.0,87,0.00,,---,0.00,VWS V14.01,2013-01-04 10:25:00,
2013-01-04 04:28:00,10.8,7.4,30.30,WSW,250,0.0,5.0,86,0.00,,---,0.00,VWS V14.01,2013-01-04 10:28:00,
2013-01-04 04:29:00,10.7,7.3,30.30,SW,225,1.0,5.0,86,0.00,,---,0.00,VWS V14.01,2013-01-04 10:29:00,
2013-01-04 04:30:00,10.6,7.2,30.30,WSW,245,0.0,5.0,86,0.00,,---,0.00,VWS V14.01,2013-01-04 10:30:00,
2013-01-04 04:33:00,10.2,6.8,30.30,SW,226,2.0,2.0,86,0.00,,---,0.00,VWS V14.01,2013-01-04 10:33:00,
2013-01-04 04:34:00,10.2,6.8,30.30,WSW,238,2.0,2.0,86,0.00,,---,0.00,VWS V14.01,2013-01-04 10:34:00,
2013-01-04 04:35:00,10.0,6.7,30.30,SW,232,1.0,2.0,86,0.00,,---,0.00,VWS V14.01,2013-01-04 10:35:00,
2013-01-04 04:39:00,9.7,6.4,30.29,WSW,242,3.0,3.0,86,0.00,,---,0.00,VWS V14.01,2013-01-04 10:39:00,
2013-01-04 04:40:00,9.6,6.3,30.29,WSW,238,3.0,3.0,86,0.00,,---,0.00,VWS V14.01,2013-01-04 10:40:00,
2013-01-04 04:44:00,9.4,6.3,30.29,SW,225,3.0,4.0,87,0.00,,---,0.00,VWS V14.01,2013-01-04 10:44:00,
2013-01-04 04:45:00,9.4,6.6,30.30,WSW,253,3.0,4.0,88,0.00,,---,0.00,VWS V14.01,2013-01-04 10:45:00,
2013-01-04 04:49:00,9.4,6.6,30.30,NNE,19,2.0,4.0,88,0.00,,---,0.00,VWS V14.01,2013-01-04 10:49:00,
2013-01-04 04:50:00,9.4,6.6,30.30,SW,226,3.0,4.0,88,0.00,,---,0.00,VWS V14.01,2013-01-04 10:50:00,
2013-01-04 04:54:00,9.4,6.6,30.29,SW,226,3.0,4.0,88,0.00,,---,0.00,VWS V14.01,2013-01-04 10:54:00,
2013-01-04 04:55:00,13.6,8.9,30.29,SSW,208,4.0,4.0,81,0.00,,---,0.00,VWS V14.01,2013-01-04 10:55:00,
2013-01-04 04:59:00,13.6,8.9,30.29,SW,214,4.0,6.0,81,0.00,,---,0.00,VWS V14.01,2013-01-04 10:59:00,
2013-01-04 05:00:00,13.6,8.9,30.29,SW,214,4.0,4.0,81,0.00,,---,0.00,VWS V14.01,2013-01-04 11:00:00,
2013-01-04 05:04:00,13.6,8.9,30.29,SW,214,4.0,4.0,81,0.00,,---,0.00,VWS V14.01,2013-01-04 11:04:00,
2013-01-04 05:05:00,13.3,8.8,30.29,SW,227,2.0,4.0,82,0.00,,---,0.00,VWS V14.01,2013-01-04 11:05:00,
2013-01-04 05:09:00,13.2,8.8,30.29,SW,227,0.0,5.0,82,0.00,,---,0.00,VWS V14.01,2013-01-04 11:09:00,
2013-01-04 05:10:00,13.2,8.8,30.29,SW,227,0.0,5.0,82,0.00,,---,0.00,VWS V14.01,2013-01-04 11:10:00,
2013-01-04 05:11:00,13.2,8.8,30.29,SW,214,1.0,5.0,82,0.00,,---,0.00,VWS V14.01,2013-01-04 11:11:00,
2013-01-04 05:14:00,13.2,8.8,30.30,SW,214,2.0,5.0,82,0.00,,---,0.00,VWS V14.01,2013-01-04 11:14:00,
2013-01-04 05:15:00,13.2,8.8,30.30,SW,214,0.0,5.0,82,0.00,,---,0.00,VWS V14.01,2013-01-04 11:15:00,
2013-01-04 05:16:00,13.1,8.6,30.30,SW,214,0.0,5.0,82,0.00,,---,0.00,VWS V14.01,2013-01-04 11:16:00,
2013-01-04 05:19:00,13.1,8.6,30.30,SW,214,2.0,5.0,82,0.00,,---,0.00,VWS V14.01,2013-01-04 11:19:00,
2013-01-04 05:20:00,13.1,8.6,30.30,SW,214,1.0,5.0,82,0.00,,---,0.00,VWS V14.01,2013-01-04 11:20:00,
2013-01-04 05:21:00,13.1,8.6,30.30,SW,214,1.0,5.0,82,0.00,,---,0.00,VWS V14.01,2013-01-04 11:21:00,
2013-01-04 05:24:00,13.1,8.6,30.30,SW,214,0.0,5.0,82,0.00,,---,0.00,VWS V14.01,2013-01-04 11:24:00,
2013-01-04 05:25:00,13.1,8.6,30.30,SW,214,0.0,5.0,82,0.00,,---,0.00,VWS V14.01,2013-01-04 11:25:00,
2013-01-04 05:26:00,13.1,8.6,30.30,SW,214,0.0,5.0,82,0.00,,---,0.00,VWS V14.01,2013-01-04 11:26:00,
2013-01-04 05:30:00,13.0,8.6,30.30,SW,215,3.0,5.0,82,0.00,,---,0.00,VWS V14.01,2013-01-04 11:30:00,
2013-01-04 05:31:00,13.0,8.6,30.30,SW,216,5.0,6.0,82,0.00,,---,0.00,VWS V14.01,2013-01-04 11:31:00,
2013-01-04 05:35:00,12.9,8.4,30.30,SW,216,3.0,6.0,82,0.00,,---,0.00,VWS V14.01,2013-01-04 11:35:00,
2013-01-04 05:36:00,12.8,8.4,30.30,SW,216,2.0,6.0,82,0.00,,---,0.00,VWS V14.01,2013-01-04 11:36:00,
2013-01-04 05:40:00,12.5,8.1,30.30,SW,216,3.0,6.0,82,0.00,,---,0.00,VWS V14.01,2013-01-04 11:40:00,
2013-01-04 05:41:00,12.5,8.1,30.30,SW,217,4.0,6.0,82,0.00,,---,0.00,VWS V14.01,2013-01-04 11:41:00,
2013-01-04 05:45:00,12.2,7.8,30.30,SW,217,3.0,6.0,82,0.00,,---,0.00,VWS V14.01,2013-01-04 11:45:00,
2013-01-04 05:46:00,12.1,7.7,30.30,SW,217,2.0,6.0,82,0.00,,---,0.00,VWS V14.01,2013-01-04 11:46:00,
2013-01-04 05:50:00,12.0,7.6,30.30,SW,219,3.0,6.0,82,0.00,,---,0.00,VWS V14.01,2013-01-04 11:50:00,
2013-01-04 05:51:00,12.0,7.8,30.30,SW,219,4.0,6.0,83,0.00,,---,0.00,VWS V14.01,2013-01-04 11:51:00,
2013-01-04 05:52:00,12.0,7.8,30.30,SW,219,4.0,6.0,83,0.00,,---,0.00,VWS V14.01,2013-01-04 11:52:00,
2013-01-04 05:55:00,12.0,7.8,30.30,SW,220,3.0,6.0,83,0.00,,---,0.00,VWS V14.01,2013-01-04 11:55:00,
2013-01-04 05:56:00,12.1,7.9,30.30,SW,220,3.0,6.0,83,0.00,,---,0.00,VWS V14.01,2013-01-04 11:56:00,
2013-01-04 05:57:00,12.1,7.9,30.30,SW,220,4.0,6.0,83,0.00,,---,0.00,VWS V14.01,2013-01-04 11:57:00,
2013-01-04 06:00:00,12.1,7.9,30.30,SW,228,5.0,6.0,83,0.00,,---,0.00,VWS V14.01,2013-01-04 12:00:00,
2013-01-04 06:01:00,12.1,7.9,30.30,SW,229,3.0,5.0,83,0.00,,---,0.00,VWS V14.01,2013-01-04 12:01:00,
2013-01-04 06:02:00,12.1,7.9,30.30,SW,229,4.0,5.0,83,0.00,,---,0.00,VWS V14.01,2013-01-04 12:02:00,
2013-01-04 06:05:00,11.8,7.6,30.30,SW,229,2.0,5.0,83,0.00,,---,0.00,VWS V14.01,2013-01-04 12:05:00,
2013-01-04 06:06:00,11.8,7.6,30.30,SW,229,4.0,5.0,83,0.00,,---,0.00,VWS V14.01,2013-01-04 12:06:00,
2013-01-04 06:07:00,11.8,7.6,30.30,SW,229,2.0,5.0,83,0.00,,---,0.00,VWS V14.01,2013-01-04 12:07:00,
2013-01-04 06:10:00,11.7,7.6,30.29,SW,229,5.0,5.0,83,0.00,,---,0.00,VWS V14.01,2013-01-04 12:10:00,
2013-01-04 06:11:00,11.8,7.6,30.29,SW,229,3.0,6.0,83,0.00,,---,0.00,VWS V14.01,2013-01-04 12:11:00,
2013-01-04 06:12:00,11.8,7.6,30.29,SW,229,4.0,6.0,83,0.00,,---,0.00,VWS V14.01,2013-01-04 12:12:00,
2013-01-04 06:15:00,12.0,8.1,30.29,SW,234,4.0,7.0,84,0.00,,---,0.00,VWS V14.01,2013-01-04 12:15:00,
2013-01-04 06:16:00,12.0,8.1,30.30,SW,221,3.0,7.0,84,0.00,,---,0.00,VWS V14.01,2013-01-04 12:16:00,
2013-01-04 06:17:00,12.1,8.2,30.30,SW,221,5.0,7.0,84,0.00,,---,0.00,VWS V14.01,2013-01-04 12:17:00,
2013-01-04 06:20:00,12.2,8.3,30.29,WSW,243,4.0,7.0,84,0.00,,---,0.00,VWS V14.01,2013-01-04 12:20:00,
2013-01-04 06:21:00,12.2,8.0,30.29,WSW,242,3.0,7.0,83,0.00,,---,0.00,VWS V14.01,2013-01-04 12:21:00,
2013-01-04 06:22:00,12.2,8.0,30.29,SW,231,2.0,7.0,83,0.00,,---,0.00,VWS V14.01,2013-01-04 12:22:00,
2013-01-04 06:23:00,12.2,8.0,30.29,SW,232,4.0,7.0,83,0.00,,---,0.00,VWS V14.01,2013-01-04 12:23:00,
2013-01-04 06:25:00,12.4,8.2,30.29,SW,232,3.0,7.0,83,0.00,,---,0.00,VWS V14.01,2013-01-04 12:25:00,
2013-01-04 06:26:00,12.4,8.5,30.29,SW,233,2.0,7.0,84,0.00,,---,0.00,VWS V14.01,2013-01-04 12:26:00,
2013-01-04 06:27:00,12.5,8.6,30.29,SW,233,4.0,7.0,84,0.00,,---,0.00,VWS V14.01,2013-01-04 12:27:00,
2013-01-04 06:28:00,12.5,8.3,30.29,SW,232,4.0,7.0,83,0.00,,---,0.00,VWS V14.01,2013-01-04 12:28:00,
2013-01-04 06:30:00,12.6,8.7,30.29,SSW,213,7.0,7.0,84,0.00,,---,0.00,VWS V14.01,2013-01-04 12:30:00,
2013-01-04 06:31:00,12.6,8.4,30.29,SSW,209,2.0,7.0,83,0.00,,---,0.00,VWS V14.01,2013-01-04 12:31:00,
2013-01-04 06:32:00,12.7,8.5,30.29,SSW,209,2.0,7.0,83,0.00,,---,0.00,VWS V14.01,2013-01-04 12:32:00,
2013-01-04 06:33:00,12.7,8.5,30.29,SSW,209,4.0,7.0,83,0.00,,---,0.00,VWS V14.01,2013-01-04 12:33:00,
2013-01-04 06:36:00,12.8,8.6,30.29,SSW,200,5.0,7.0,83,0.00,,---,0.00,VWS V14.01,2013-01-04 12:36:00,
2013-01-04 06:37:00,12.9,8.7,30.29,SSW,201,3.0,7.0,83,0.00,,---,0.00,VWS V14.01,2013-01-04 12:37:00,
2013-01-04 06:39:00,12.9,8.7,30.29,SSW,202,4.0,7.0,83,0.00,,---,0.00,VWS V14.01,2013-01-04 12:39:00,
2013-01-04 06:41:00,13.1,8.9,30.29,SSW,200,4.0,7.0,83,0.00,,---,0.00,VWS V14.01,2013-01-04 12:41:00,
2013-01-04 06:43:00,13.3,9.1,30.29,SSW,205,4.0,7.0,83,0.00,,---,0.00,VWS V14.01,2013-01-04 12:43:00,
2013-01-04 06:44:00,13.3,9.1,30.30,SW,236,5.0,7.0,83,0.00,,---,0.00,VWS V14.01,2013-01-04 12:44:00,
2013-01-04 06:46:00,13.5,9.3,30.30,SSW,212,2.0,7.0,83,0.00,,---,0.00,VWS V14.01,2013-01-04 12:46:00,
2013-01-04 06:48:00,13.6,9.4,30.29,SSW,213,5.0,7.0,83,0.00,,---,0.00,VWS V14.01,2013-01-04 12:48:00,
2013-01-04 06:49:00,13.6,9.4,30.30,South,178,4.0,7.0,83,0.00,,---,0.00,VWS V14.01,2013-01-04 12:49:00,
2013-01-04 06:51:00,13.7,9.5,30.30,SSW,202,4.0,8.0,83,0.00,,---,0.00,VWS V14.01,2013-01-04 12:51:00,
2013-01-04 06:53:00,13.8,9.6,30.30,SSW,206,3.0,9.0,83,0.00,,---,0.00,VWS V14.01,2013-01-04 12:53:00,
2013-01-04 06:54:00,13.8,9.6,30.30,SSW,206,3.0,9.0,83,0.00,,---,0.00,VWS V14.01,2013-01-04 12:54:00,
2013-01-04 06:56:00,13.8,9.3,30.30,SSW,199,2.0,9.0,82,0.00,,---,0.00,VWS V14.01,2013-01-04 12:56:00,
2013-01-04 06:59:00,13.7,9.2,30.30,SSW,199,3.0,9.0,82,0.00,,---,0.00,VWS V14.01,2013-01-04 12:59:00,
2013-01-04 07:01:00,13.6,9.1,30.30,SSW,198,1.0,4.0,82,0.00,,---,0.00,VWS V14.01,2013-01-04 13:01:00,
2013-01-04 07:04:00,13.5,9.0,30.30,SW,220,5.0,9.0,82,0.00,,---,0.00,VWS V14.01,2013-01-04 13:04:00,
2013-01-04 07:06:00,13.5,9.0,30.30,SW,221,3.0,9.0,82,0.00,,---,0.00,VWS V14.01,2013-01-04 13:06:00,
2013-01-04 07:07:00,13.5,9.0,30.30,SW,221,3.0,9.0,82,0.00,,---,0.00,VWS V14.01,2013-01-04 13:07:00,
2013-01-04 07:09:00,13.4,8.9,30.30,SW,225,9.0,9.0,82,0.00,,---,0.00,VWS V14.01,2013-01-04 13:09:00,
2013-01-04 07:12:00,13.4,8.9,30.30,SW,231,1.0,9.0,82,0.00,,---,0.00,VWS V14.01,2013-01-04 13:12:00,
2013-01-04 07:14:00,13.4,8.9,30.30,SSW,201,3.0,9.0,82,0.00,,---,0.00,VWS V14.01,2013-01-04 13:14:00,
2013-01-04 07:17:00,13.4,8.9,30.30,WSW,243,3.0,9.0,82,0.00,,---,0.00,VWS V14.01,2013-01-04 13:17:00,
2013-01-04 07:19:00,13.3,8.8,30.30,SW,224,1.0,9.0,82,0.00,,---,0.00,VWS V14.01,2013-01-04 13:19:00,
2013-01-04 07:22:00,13.3,8.8,30.30,SW,235,2.0,9.0,82,0.00,,---,0.00,VWS V14.01,2013-01-04 13:22:00,
2013-01-04 07:24:00,13.4,8.9,30.30,SW,234,2.0,9.0,82,0.00,,---,0.00,VWS V14.01,2013-01-04 13:24:00,
2013-01-04 07:27:00,13.4,8.9,30.30,SW,215,3.0,9.0,82,0.00,,---,0.00,VWS V14.01,2013-01-04 13:27:00,
2013-01-04 07:29:00,13.5,9.0,30.30,SW,228,4.0,9.0,82,0.00,,---,0.00,VWS V14.01,2013-01-04 13:29:00,
2013-01-04 07:32:00,13.6,9.1,30.30,SSW,196,3.0,9.0,82,0.00,,---,0.00,VWS V14.01,2013-01-04 13:32:00,
2013-01-04 07:34:00,13.7,9.2,30.30,SW,218,5.0,9.0,82,0.00,,---,0.00,VWS V14.01,2013-01-04 13:34:00,
2013-01-04 07:35:00,13.7,9.2,30.30,SW,219,3.0,9.0,82,0.00,,---,0.00,VWS V14.01,2013-01-04 13:35:00,
2013-01-04 07:37:00,13.8,9.3,30.30,SW,229,5.0,9.0,82,0.00,,---,0.00,VWS V14.01,2013-01-04 13:37:00,
2013-01-04 07:39:00,13.9,9.4,30.30,SSW,196,4.0,9.0,82,0.00,,---,0.00,VWS V14.01,2013-01-04 13:39:00,
2013-01-04 07:40:00,13.9,9.4,30.30,SSW,196,4.0,9.0,82,0.00,,---,0.00,VWS V14.01,2013-01-04 13:40:00,
2013-01-04 07:42:00,14.0,9.5,30.30,SSW,205,5.0,9.0,82,0.00,,---,0.00,VWS V14.01,2013-01-04 13:42:00,
2013-01-04 07:44:00,14.1,9.6,30.30,SSW,201,3.0,9.0,82,0.00,,---,0.00,VWS V14.01,2013-01-04 13:44:00,
2013-01-04 07:45:00,14.1,9.6,30.30,SSW,201,3.0,9.0,82,0.00,,---,0.00,VWS V14.01,2013-01-04 13:45:00,
2013-01-04 07:47:00,14.1,9.6,30.30,SSW,201,2.0,9.0,82,0.00,,---,0.00,VWS V14.01,2013-01-04 13:47:00,
2013-01-04 07:48:00,14.1,9.6,30.30,SSW,201,2.0,9.0,82,0.00,,---,0.00,VWS V14.01,2013-01-04 13:48:00,
2013-01-04 07:49:00,14.1,9.6,30.30,SSW,201,2.0,9.0,82,0.00,,---,0.00,VWS V14.01,2013-01-04 13:49:00,
2013-01-04 07:50:00,14.1,9.6,30.30,SSW,201,2.0,9.0,82,0.00,,---,0.00,VWS V14.01,2013-01-04 13:50:00,
2013-01-04 07:52:00,12.3,9.4,30.30,SW,219,6.0,9.0,88,0.00,,---,0.00,VWS V14.01,2013-01-04 13:52:00,
2013-01-04 07:53:00,12.4,9.5,30.30,WSW,238,6.0,9.0,88,0.00,,---,0.00,VWS V14.01,2013-01-04 13:53:00,
2013-01-04 07:54:00,12.5,9.6,30.30,SW,225,4.0,9.0,88,0.00,,---,0.00,VWS V14.01,2013-01-04 13:54:00,
2013-01-04 07:55:00,12.6,9.5,30.30,SSW,211,3.0,9.0,87,0.00,,---,0.00,VWS V14.01,2013-01-04 13:55:00,
2013-01-04 07:57:00,12.7,9.8,30.30,SW,226,5.0,9.0,88,0.00,,---,0.00,VWS V14.01,2013-01-04 13:57:00,
2013-01-04 07:58:00,12.8,9.9,30.30,SW,230,5.0,9.0,88,0.00,,---,0.00,VWS V14.01,2013-01-04 13:58:00,
2013-01-04 07:59:00,12.9,10.0,30.30,SW,233,5.0,9.0,88,0.00,,---,0.00,VWS V14.01,2013-01-04 13:59:00,
2013-01-04 08:01:00,13.0,10.1,30.30,SW,233,4.0,5.0,88,0.00,,---,0.00,VWS V14.01,2013-01-04 14:01:00,
2013-01-04 08:02:00,13.1,10.0,30.30,WSW,250,5.0,7.0,87,0.00,,---,0.00,VWS V14.01,2013-01-04 14:02:00,
2013-01-04 08:03:00,13.1,10.0,30.30,SSW,211,7.0,7.0,87,0.00,,---,0.00,VWS V14.01,2013-01-04 14:03:00,
2013-01-04 08:05:00,13.4,10.5,30.30,SW,223,4.0,7.0,88,0.00,,---,0.00,VWS V14.01,2013-01-04 14:05:00,
2013-01-04 08:06:00,13.6,10.7,30.30,WSW,245,6.0,7.0,88,0.00,,---,0.00,VWS V14.01,2013-01-04 14:06:00,
2013-01-04 08:07:00,13.7,10.8,30.30,West,275,3.0,7.0,88,0.00,,---,0.00,VWS V14.01,2013-01-04 14:07:00,
2013-01-04 08:08:00,13.9,11.0,30.30,SW,223,4.0,9.0,88,0.00,,---,0.00,VWS V14.01,2013-01-04 14:08:00,
2013-01-04 08:10:00,14.0,11.1,30.30,WSW,244,6.0,10.0,88,0.00,,---,0.00,VWS V14.01,2013-01-04 14:10:00,
2013-01-04 08:11:00,14.1,11.2,30.29,West,265,4.0,10.0,88,0.00,,---,0.00,VWS V14.01,2013-01-04 14:11:00,
2013-01-04 08:13:00,14.3,11.1,30.30,West,260,6.0,10.0,87,0.00,,---,0.00,VWS V14.01,2013-01-04 14:13:00,
2013-01-04 08:15:00,14.4,11.2,30.30,SW,225,6.0,10.0,87,0.00,,---,0.00,VWS V14.01,2013-01-04 14:15:00,
2013-01-04 08:16:00,14.4,11.2,30.30,West,275,3.0,10.0,87,0.00,,---,0.00,VWS V14.01,2013-01-04 14:16:00,
2013-01-04 08:18:00,14.6,11.4,30.30,WNW,302,2.0,10.0,87,0.00,,---,0.00,VWS V14.01,2013-01-04 14:18:00,
2013-01-04 08:20:00,14.7,11.5,30.30,West,264,4.0,10.0,87,0.00,,---,0.00,VWS V14.01,2013-01-04 14:20:00,
2013-01-04 08:21:00,14.8,11.6,30.30,WSW,240,6.0,10.0,87,0.00,,---,0.00,VWS V14.01,2013-01-04 14:21:00,
2013-01-04 08:23:00,14.9,11.7,30.30,West,275,4.0,10.0,87,0.00,,---,0.00,VWS V14.01,2013-01-04 14:23:00,
2013-01-04 08:25:00,15.1,11.9,30.30,WSW,256,4.0,10.0,87,0.00,,---,0.00,VWS V14.01,2013-01-04 14:25:00,
2013-01-04 08:26:00,15.1,11.9,30.30,West,279,4.0,10.0,87,0.00,,---,0.00,VWS V14.01,2013-01-04 14:26:00,
2013-01-04 08:28:00,15.4,12.2,30.30,SW,233,3.0,10.0,87,0.00,,---,0.00,VWS V14.01,2013-01-04 14:28:00,
2013-01-04 08:29:00,15.4,12.2,30.30,WSW,256,3.0,10.0,87,0.00,,---,0.00,VWS V14.01,2013-01-04 14:29:00,
2013-01-04 08:30:00,15.5,12.3,30.30,SW,222,4.0,10.0,87,0.00,,---,0.00,VWS V14.01,2013-01-04 14:30:00,
2013-01-04 08:31:00,15.6,12.4,30.30,West,275,5.0,5.0,87,0.00,,---,0.00,VWS V14.01,2013-01-04 14:31:00,
2013-01-04 08:33:00,15.8,12.6,30.30,WNW,292,2.0,5.0,87,0.00,,---,0.00,VWS V14.01,2013-01-04 14:33:00,
2013-01-04 08:34:00,15.9,12.7,30.30,SSW,194,3.0,5.0,87,0.00,,---,0.00,VWS V14.01,2013-01-04 14:34:00,
2013-01-04 08:35:00,16.0,12.8,30.30,SSE,155,2.0,5.0,87,0.00,,---,0.00,VWS V14.01,2013-01-04 14:35:00,
2013-01-04 08:36:00,16.1,12.9,30.30,WNW,296,1.0,5.0,87,0.00,,---,0.00,VWS V14.01,2013-01-04 14:36:00,
2013-01-04 08:38:00,16.4,13.2,30.30,South,190,2.0,5.0,87,0.00,,---,0.00,VWS V14.01,2013-01-04 14:38:00,
2013-01-04 08:39:00,16.4,13.2,30.30,SW,221,4.0,5.0,87,0.00,,---,0.00,VWS V14.01,2013-01-04 14:39:00,
2013-01-04 08:40:00,16.8,13.6,30.30,South,176,2.0,5.0,87,0.00,,---,0.00,VWS V14.01,2013-01-04 14:40:00,
2013-01-04 08:41:00,17.0,13.8,30.30,SW,230,3.0,5.0,87,0.00,,---,0.00,VWS V14.01,2013-01-04 14:41:00,
2013-01-04 08:43:00,17.3,14.1,30.30,WSW,238,2.0,5.0,87,0.00,,---,0.00,VWS V14.01,2013-01-04 14:43:00,
2013-01-04 08:44:00,17.4,14.2,30.30,ESE,122,3.0,5.0,87,0.00,,---,0.00,VWS V14.01,2013-01-04 14:44:00,
2013-01-04 08:45:00,17.5,14.3,30.30,WSW,256,2.0,5.0,87,0.00,,---,0.00,VWS V14.01,2013-01-04 14:45:00,
2013-01-04 08:46:00,17.7,14.5,30.30,NNW,338,3.0,5.0,87,0.00,,---,0.00,VWS V14.01,2013-01-04 14:46:00,
2013-01-04 08:48:00,18.1,14.6,30.31,ENE,66,3.0,5.0,86,0.00,,---,0.00,VWS V14.01,2013-01-04 14:48:00,
2013-01-04 08:49:00,18.1,14.6,30.30,WSW,237,5.0,5.0,86,0.00,,---,0.00,VWS V14.01,2013-01-04 14:49:00,
2013-01-04 08:50:00,18.2,14.5,30.31,ESE,103,3.0,11.0,85,0.00,,---,0.00,VWS V14.01,2013-01-04 14:50:00,
2013-01-04 08:51:00,18.3,14.6,30.30,SE,141,2.0,11.0,85,0.00,,---,0.00,VWS V14.01,2013-01-04 14:51:00,
2013-01-04 08:53:00,18.4,14.6,30.31,WSW,248,6.0,11.0,85,0.00,,---,0.00,VWS V14.01,2013-01-04 14:53:00,
2013-01-04 08:54:00,18.4,14.6,30.31,SW,215,3.0,11.0,85,0.00,,---,0.00,VWS V14.01,2013-01-04 14:54:00,
2013-01-04 08:55:00,18.5,14.8,30.31,North,5,4.0,11.0,85,0.00,,---,0.00,VWS V14.01,2013-01-04 14:55:00,
2013-01-04 08:56:00,18.6,14.9,30.31,SE,139,2.0,11.0,85,0.00,,---,0.00,VWS V14.01,2013-01-04 14:56:00,
2013-01-04 08:58:00,18.7,14.9,30.31,NNE,24,1.0,11.0,85,0.00,,---,0.00,VWS V14.01,2013-01-04 14:58:00,
2013-01-04 08:59:00,18.7,14.9,30.31,West,271,4.0,11.0,85,0.00,,---,0.00,VWS V14.01,2013-01-04 14:59:00,
2013-01-04 09:01:00,18.9,15.1,30.31,ENE,66,1.0,5.0,85,0.00,,---,0.00,VWS V14.01,2013-01-04 15:01:00,
2013-01-04 09:04:00,19.1,15.3,30.31,NE,36,2.0,5.0,85,0.00,,---,0.00,VWS V14.01,2013-01-04 15:04:00,
2013-01-04 09:06:00,19.4,15.6,30.31,East,90,4.0,5.0,85,0.00,,---,0.00,VWS V14.01,2013-01-04 15:06:00,
2013-01-04 09:07:00,19.4,15.6,30.31,South,188,2.0,5.0,85,0.00,,---,0.00,VWS V14.01,2013-01-04 15:07:00,
2013-01-04 09:09:00,19.6,15.8,30.31,ESE,109,3.0,5.0,85,0.00,,---,0.00,VWS V14.01,2013-01-04 15:09:00,
2013-01-04 09:11:00,19.8,16.0,30.31,WNW,295,1.0,6.0,85,0.00,,---,0.00,VWS V14.01,2013-01-04 15:11:00,
2013-01-04 09:12:00,19.8,16.0,30.31,SSW,195,3.0,6.0,85,0.00,,---,0.00,VWS V14.01,2013-01-04 15:12:00,
2013-01-04 09:14:00,20.1,16.3,30.31,WSW,249,4.0,6.0,85,0.00,,---,0.00,VWS V14.01,2013-01-04 15:14:00,
2013-01-04 09:17:00,20.3,16.2,30.31,West,272,6.0,6.0,84,0.00,,---,0.00,VWS V14.01,2013-01-04 15:17:00,
2013-01-04 09:19:00,20.5,16.4,30.31,NE,51,1.0,6.0,84,0.00,,---,0.00,VWS V14.01,2013-01-04 15:19:00,
2013-01-04 09:22:00,20.8,17.0,30.31,WNW,292,2.0,6.0,85,0.00,,---,0.00,VWS V14.01,2013-01-04 15:22:00,
2013-01-04 09:24:00,20.9,17.1,30.31,NE,46,2.0,6.0,85,0.00,,---,0.00,VWS V14.01,2013-01-04 15:24:00,
2013-01-04 09:27:00,21.2,17.4,30.31,SSW,195,2.0,6.0,85,0.00,,---,0.00,VWS V14.01,2013-01-04 15:27:00,
2013-01-04 09:29:00,21.4,17.3,30.31,South,184,6.0,9.0,84,0.00,,---,0.00,VWS V14.01,2013-01-04 15:29:00,
2013-01-04 09:32:00,21.7,17.9,30.32,South,186,2.0,4.0,85,0.00,,---,0.00,VWS V14.01,2013-01-04 15:32:00,
2013-01-04 09:34:00,21.9,17.8,30.32,SSW,209,2.0,7.0,84,0.00,,---,0.00,VWS V14.01,2013-01-04 15:34:00,
2013-01-04 09:35:00,22.0,17.9,30.32,West,271,2.0,7.0,84,0.00,,---,0.00,VWS V14.01,2013-01-04 15:35:00,
2013-01-04 09:37:00,22.2,18.1,30.32,SSE,160,1.0,7.0,84,0.00,,---,0.00,VWS V14.01,2013-01-04 15:37:00,
2013-01-04 09:38:00,22.4,18.3,30.32,SW,226,2.0,7.0,84,0.00,,---,0.00,VWS V14.01,2013-01-04 15:38:00,
2013-01-04 09:39:00,22.4,18.3,30.32,West,275,3.0,7.0,84,0.00,,---,0.00,VWS V14.01,2013-01-04 15:39:00,
2013-01-04 09:40:00,22.5,18.4,30.32,WNW,291,3.0,7.0,84,0.00,,---,0.00,VWS V14.01,2013-01-04 15:40:00,
2013-01-04 09:42:00,22.7,18.6,30.32,NNW,331,3.0,7.0,84,0.00,,---,0.00,VWS V14.01,2013-01-04 15:42:00,
2013-01-04 09:43:00,22.7,18.6,30.32,WNW,302,2.0,7.0,84,0.00,,---,0.00,VWS V14.01,2013-01-04 15:43:00,
2013-01-04 09:44:00,22.9,18.8,30.32,WSW,249,4.0,7.0,84,0.00,,---,0.00,VWS V14.01,2013-01-04 15:44:00,
2013-01-04 09:45:00,23.0,18.9,30.32,East,81,2.0,7.0,84,0.00,,---,0.00,VWS V14.01,2013-01-04 15:45:00,
2013-01-04 09:47:00,23.1,18.7,30.32,WNW,286,4.0,9.0,83,0.00,,---,0.00,VWS V14.01,2013-01-04 15:47:00,
2013-01-04 09:48:00,23.2,18.8,30.32,WSW,241,2.0,9.0,83,0.00,,---,0.00,VWS V14.01,2013-01-04 15:48:00,
2013-01-04 09:50:00,23.5,19.4,30.32,NW,306,3.0,9.0,84,0.00,,---,0.00,VWS V14.01,2013-01-04 15:50:00,
2013-01-04 09:52:00,23.7,19.3,30.32,West,267,2.0,9.0,83,0.00,,---,0.00,VWS V14.01,2013-01-04 15:52:00,
2013-01-04 09:53:00,23.8,19.4,30.32,WNW,287,4.0,9.0,83,0.00,,---,0.00,VWS V14.01,2013-01-04 15:53:00,
2013-01-04 09:55:00,24.0,19.6,30.32,WSW,237,2.0,9.0,83,0.00,,---,0.00,VWS V14.01,2013-01-04 15:55:00,
2013-01-04 09:57:00,24.2,19.8,30.32,South,184,2.0,9.0,83,0.00,,---,0.00,VWS V14.01,2013-01-04 15:57:00,
2013-01-04 09:58:00,24.4,20.0,30.32,North,5,6.0,9.0,83,0.00,,---,0.00,VWS V14.01,2013-01-04 15:58:00,
2013-01-04 10:00:00,24.5,19.8,30.32,South,188,3.0,9.0,82,0.00,,---,0.00,VWS V14.01,2013-01-04 16:00:00,
2013-01-04 10:02:00,24.7,20.0,30.31,South,173,3.0,4.0,82,0.00,,---,0.00,VWS V14.01,2013-01-04 16:02:00,
2013-01-04 10:03:00,24.7,20.0,30.31,West,276,3.0,6.0,82,0.00,,---,0.00,VWS V14.01,2013-01-04 16:03:00,
2013-01-04 10:05:00,24.9,20.5,30.32,WSW,245,5.0,6.0,83,0.00,,---,0.00,VWS V14.01,2013-01-04 16:05:00,
2013-01-04 10:07:00,25.1,20.7,30.32,WSW,237,2.0,6.0,83,0.00,,---,0.00,VWS V14.01,2013-01-04 16:07:00,
2013-01-04 10:08:00,25.3,20.9,30.32,West,272,2.0,6.0,83,0.00,,---,0.00,VWS V14.01,2013-01-04 16:08:00,
2013-01-04 10:10:00,25.5,21.1,30.32,ESE,122,2.0,6.0,83,0.00,,---,0.00,VWS V14.01,2013-01-04 16:10:00,
2013-01-04 10:12:00,25.8,21.4,30.32,WSW,240,9.0,9.0,83,0.00,,---,0.00,VWS V14.01,2013-01-04 16:12:00,
2013-01-04 10:13:00,25.8,21.1,30.32,WSW,240,5.0,9.0,82,0.00,,---,0.00,VWS V14.01,2013-01-04 16:13:00,
2013-01-04 10:15:00,25.9,21.2,30.32,SSW,208,2.0,9.0,82,0.00,,---,0.00,VWS V14.01,2013-01-04 16:15:00,
2013-01-04 10:16:00,26.0,21.3,30.32,NW,306,2.0,9.0,82,0.00,,---,0.00,VWS V14.01,2013-01-04 16:16:00,
2013-01-04 10:17:00,26.1,21.4,30.31,East,94,3.0,9.0,82,0.00,,---,0.00,VWS V14.01,2013-01-04 16:17:00,
2013-01-04 10:19:00,26.3,21.6,30.31,SW,226,7.0,10.0,82,0.00,,---,0.00,VWS V14.01,2013-01-04 16:19:00,
2013-01-04 10:20:00,26.3,21.6,30.31,SW,232,5.0,10.0,82,0.00,,---,0.00,VWS V14.01,2013-01-04 16:20:00,
2013-01-04 10:21:00,26.4,21.7,30.31,WSW,253,5.0,10.0,82,0.00,,---,0.00,VWS V14.01,2013-01-04 16:21:00,
2013-01-04 10:22:00,26.5,21.8,30.31,West,271,5.0,10.0,82,0.00,,---,0.00,VWS V14.01,2013-01-04 16:22:00,
2013-01-04 10:24:00,26.6,21.9,30.31,SW,226,6.0,10.0,82,0.00,,---,0.00,VWS V14.01,2013-01-04 16:24:00,
2013-01-04 10:26:00,26.7,22.0,30.31,South,173,5.0,10.0,82,0.00,,---,0.00,VWS V14.01,2013-01-04 16:26:00,
2013-01-04 10:27:00,26.9,22.1,30.31,NNW,340,2.0,10.0,82,0.00,,---,0.00,VWS V14.01,2013-01-04 16:27:00,
2013-01-04 10:29:00,27.0,22.2,30.31,East,97,2.0,10.0,82,0.00,,---,0.00,VWS V14.01,2013-01-04 16:29:00,
2013-01-04 10:31:00,27.2,22.4,30.31,NW,304,3.0,3.0,82,0.00,,---,0.00,VWS V14.01,2013-01-04 16:31:00,
2013-01-04 10:32:00,27.3,22.5,30.31,WNW,298,6.0,6.0,82,0.00,,---,0.00,VWS V14.01,2013-01-04 16:32:00,
2013-01-04 10:34:00,27.5,22.7,30.31,East,89,5.0,6.0,82,0.00,,---,0.00,VWS V14.01,2013-01-04 16:34:00,
2013-01-04 10:36:00,27.5,22.7,30.31,SE,134,3.0,6.0,82,0.00,,---,0.00,VWS V14.01,2013-01-04 16:36:00,
2013-01-04 10:37:00,25.8,20.5,30.31,SW,221,7.0,12.0,80,0.00,,---,0.00,VWS V14.01,2013-01-04 16:37:00,
2013-01-04 10:39:00,25.9,20.6,30.31,SW,228,6.0,12.0,80,0.00,,---,0.00,VWS V14.01,2013-01-04 16:39:00,
2013-01-04 10:41:00,26.1,20.8,30.31,SW,235,11.0,14.0,80,0.00,,---,0.00,VWS V14.01,2013-01-04 16:41:00,
2013-01-04 10:42:00,26.1,20.8,30.31,SSW,212,7.0,14.0,80,0.00,,---,0.00,VWS V14.01,2013-01-04 16:42:00,
2013-01-04 10:44:00,26.3,21.0,30.31,SW,226,6.0,14.0,80,0.00,,---,0.00,VWS V14.01,2013-01-04 16:44:00,
2013-01-04 10:46:00,26.5,21.2,30.31,WSW,239,9.0,14.0,80,0.00,,---,0.00,VWS V14.01,2013-01-04 16:46:00,
2013-01-04 10:47:00,26.6,21.3,30.30,SW,232,10.0,14.0,80,0.00,,---,0.00,VWS V14.01,2013-01-04 16:47:00,
2013-01-04 10:48:00,26.6,21.3,30.30,SW,236,12.0,14.0,80,0.00,,---,0.00,VWS V14.01,2013-01-04 16:48:00,
2013-01-04 10:49:00,26.7,21.4,30.30,WSW,242,14.0,14.0,80,0.00,,---,0.00,VWS V14.01,2013-01-04 16:49:00,
2013-01-04 10:52:00,26.9,21.6,30.30,WSW,248,10.0,14.0,80,0.00,,---,0.00,VWS V14.01,2013-01-04 16:52:00,
2013-01-04 10:53:00,26.9,21.6,30.30,WSW,238,12.0,14.0,80,0.00,,---,0.00,VWS V14.01,2013-01-04 16:53:00,
2013-01-04 10:55:00,27.0,21.7,30.30,SW,229,10.0,14.0,80,0.00,,---,0.00,VWS V14.01,2013-01-04 16:55:00,
2013-01-04 10:57:00,27.1,21.8,30.30,SW,231,11.0,17.0,80,0.00,,---,0.00,VWS V14.01,2013-01-04 16:57:00,
2013-01-04 10:58:00,27.1,21.8,30.30,WSW,240,13.0,17.0,80,0.00,,---,0.00,VWS V14.01,2013-01-04 16:58:00,
2013-01-04 11:00:00,27.1,21.8,30.30,WSW,244,16.0,17.0,80,0.00,,---,0.00,VWS V14.01,2013-01-04 17:00:00,
2013-01-04 11:02:00,27.3,22.0,30.30,SW,234,14.0,15.0,80,0.00,,---,0.00,VWS V14.01,2013-01-04 17:02:00,
2013-01-04 11:03:00,27.4,22.0,30.30,SW,236,11.0,15.0,80,0.00,,---,0.00,VWS V14.01,2013-01-04 17:03:00,
2013-01-04 11:05:00,27.4,22.0,30.30,WSW,250,10.0,15.0,80,0.00,,---,0.00,VWS V14.01,2013-01-04 17:05:00,
2013-01-04 11:07:00,27.5,22.1,30.30,WSW,244,14.0,16.0,80,0.00,,---,0.00,VWS V14.01,2013-01-04 17:07:00,
2013-01-04 11:08:00,27.5,22.1,30.30,SW,234,13.0,16.0,80,0.00,,---,0.00,VWS V14.01,2013-01-04 17:08:00,
2013-01-04 11:10:00,27.6,22.2,30.30,SW,236,9.0,16.0,80,0.00,,---,0.00,VWS V14.01,2013-01-04 17:10:00,
2013-01-04 11:13:00,27.8,22.4,30.30,SW,229,15.0,16.0,80,0.00,,---,0.00,VWS V14.01,2013-01-04 17:13:00,
2013-01-04 11:15:00,27.9,22.2,30.29,SW,230,10.0,17.0,79,0.00,,---,0.00,VWS V14.01,2013-01-04 17:15:00,
2013-01-04 11:18:00,28.1,22.4,30.29,WSW,244,16.0,17.0,79,0.00,,---,0.00,VWS V14.01,2013-01-04 17:18:00,
2013-01-04 11:20:00,28.1,22.4,30.29,WSW,249,11.0,17.0,79,0.00,,---,0.00,VWS V14.01,2013-01-04 17:20:00,
2013-01-04 11:23:00,28.4,22.7,30.29,WSW,237,8.0,17.0,79,0.00,,---,0.00,VWS V14.01,2013-01-04 17:23:00,
2013-01-04 11:25:00,28.7,23.0,30.29,SW,231,11.0,17.0,79,0.00,,---,0.00,VWS V14.01,2013-01-04 17:25:00,
2013-01-04 11:28:00,28.8,22.8,30.28,WSW,240,10.0,17.0,78,0.00,,---,0.00,VWS V14.01,2013-01-04 17:28:00,
2013-01-04 11:30:00,28.8,22.8,30.29,SW,230,11.0,17.0,78,0.00,,---,0.00,VWS V14.01,2013-01-04 17:30:00,
2013-01-04 11:33:00,29.0,23.0,30.29,SW,230,14.0,15.0,78,0.00,,---,0.00,VWS V14.01,2013-01-04 17:33:00,
2013-01-04 11:35:00,29.0,23.0,30.29,WSW,245,16.0,18.0,78,0.00,,---,0.00,VWS V14.01,2013-01-04 17:35:00,
2013-01-04 11:38:00,29.1,23.1,30.28,WSW,238,11.0,18.0,78,0.00,,---,0.00,VWS V14.01,2013-01-04 17:38:00,
2013-01-04 11:39:00,29.1,23.1,30.28,WSW,244,11.0,18.0,78,0.00,,---,0.00,VWS V14.01,2013-01-04 17:39:00,
2013-01-04 11:41:00,29.2,23.2,30.28,WSW,241,7.0,18.0,78,0.00,,---,0.00,VWS V14.01,2013-01-04 17:41:00,
2013-01-04 11:43:00,29.2,22.9,30.28,WSW,246,13.0,18.0,77,0.00,,---,0.00,VWS V14.01,2013-01-04 17:43:00,
2013-01-04 11:44:00,29.2,22.9,30.28,WSW,237,9.0,18.0,77,0.00,,---,0.00,VWS V14.01,2013-01-04 17:44:00,
2013-01-04 11:46:00,29.3,23.3,30.28,WSW,250,13.0,18.0,78,0.00,,---,0.00,VWS V14.01,2013-01-04 17:46:00,
2013-01-04 11:49:00,29.5,23.5,30.28,WSW,246,11.0,18.0,78,0.00,,---,0.00,VWS V14.01,2013-01-04 17:49:00,
2013-01-04 11:51:00,29.7,24.0,30.28,WSW,240,10.0,18.0,79,0.00,,---,0.00,VWS V14.01,2013-01-04 17:51:00,
2013-01-04 11:54:00,29.8,23.8,30.28,SW,236,10.0,18.0,78,0.00,,---,0.00,VWS V14.01,2013-01-04 17:54:00,
2013-01-04 11:56:00,29.9,23.9,30.28,SW,234,10.0,18.0,78,0.00,,---,0.00,VWS V14.01,2013-01-04 17:56:00,
2013-01-04 11:59:00,29.9,23.9,30.28,SW,236,10.0,18.0,78,0.00,,---,0.00,VWS V14.01,2013-01-04 17:59:00,
2013-01-04 12:00:00,30.0,24.0,30.27,WSW,245,7.0,18.0,78,0.00,,---,0.00,VWS V14.01,2013-01-04 18:00:00,
2013-01-04 12:01:00,30.0,24.0,30.27,WSW,238,4.0,11.0,78,0.00,,---,0.00,VWS V14.01,2013-01-04 18:01:00,
2013-01-04 12:04:00,30.1,23.8,30.27,SW,231,9.0,11.0,77,0.00,,---,0.00,VWS V14.01,2013-01-04 18:04:00,
2013-01-04 12:05:00,30.1,23.8,30.27,SSW,206,2.0,11.0,77,0.00,,---,0.00,VWS V14.01,2013-01-04 18:05:00,
2013-01-04 12:06:00,30.1,23.8,30.27,WSW,240,10.0,11.0,77,0.00,,---,0.00,VWS V14.01,2013-01-04 18:06:00,
2013-01-04 12:09:00,30.2,23.9,30.27,SW,232,6.0,15.0,77,0.00,,---,0.00,VWS V14.01,2013-01-04 18:09:00,
2013-01-04 12:10:00,30.2,23.9,30.27,SW,234,7.0,15.0,77,0.00,,---,0.00,VWS V14.01,2013-01-04 18:10:00,
2013-01-04 12:11:00,30.2,23.9,30.27,WSW,248,11.0,15.0,77,0.00,,---,0.00,VWS V14.01,2013-01-04 18:11:00,
2013-01-04 12:14:00,30.3,24.0,30.27,SW,234,9.0,15.0,77,0.00,,---,0.00,VWS V14.01,2013-01-04 18:14:00,
2013-01-04 12:15:00,30.3,24.0,30.27,WSW,240,11.0,15.0,77,0.00,,---,0.00,VWS V14.01,2013-01-04 18:15:00,
2013-01-04 12:16:00,30.3,24.0,30.27,SW,230,7.0,15.0,77,0.00,,---,0.00,VWS V14.01,2013-01-04 18:16:00,
2013-01-04 12:19:00,30.4,23.8,30.27,SW,232,6.0,15.0,76,0.00,,---,0.00,VWS V14.01,2013-01-04 18:19:00,
2013-01-04 12:20:00,30.5,23.9,30.27,WSW,244,10.0,15.0,76,0.00,,---,0.00,VWS V14.01,2013-01-04 18:20:00,
2013-01-04 12:21:00,30.5,23.9,30.27,WSW,242,12.0,15.0,76,0.00,,---,0.00,VWS V14.01,2013-01-04 18:21:00,
2013-01-04 12:24:00,30.6,24.0,30.27,WSW,240,8.0,15.0,76,0.00,,---,0.00,VWS V14.01,2013-01-04 18:24:00,
2013-01-04 12:25:00,30.6,24.0,30.27,WSW,238,7.0,15.0,76,0.00,,---,0.00,VWS V14.01,2013-01-04 18:25:00,
2013-01-04 12:26:00,30.7,24.0,30.27,SW,218,5.0,15.0,76,0.00,,---,0.00,VWS V14.01,2013-01-04 18:26:00,
2013-01-04 12:30:00,30.8,24.1,30.27,SW,236,10.0,15.0,76,0.00,,---,0.00,VWS V14.01,2013-01-04 18:30:00,
2013-01-04 12:31:00,30.8,24.1,30.26,WSW,242,9.0,11.0,76,0.00,,---,0.00,VWS V14.01,2013-01-04 18:31:00,
2013-01-04 12:35:00,30.9,24.2,30.26,SW,223,7.0,12.0,76,0.00,,---,0.00,VWS V14.01,2013-01-04 18:35:00,
2013-01-04 12:37:00,30.9,24.2,30.26,SSW,211,9.0,12.0,76,0.00,,---,0.00,VWS V14.01,2013-01-04 18:37:00,
2013-01-04 12:40:00,30.9,24.2,30.25,SW,221,10.0,14.0,76,0.00,,---,0.00,VWS V14.01,2013-01-04 18:40:00,
2013-01-04 12:42:00,30.9,24.2,30.25,SSW,205,6.0,14.0,76,0.00,,---,0.00,VWS V14.01,2013-01-04 18:42:00,
2013-01-04 12:45:00,31.0,24.0,30.25,SW,219,6.0,14.0,75,0.00,,---,0.00,VWS V14.01,2013-01-04 18:45:00,
2013-01-04 12:47:00,31.1,24.1,30.25,SW,223,7.0,14.0,75,0.00,,---,0.00,VWS V14.01,2013-01-04 18:47:00,
2013-01-04 12:50:00,31.2,24.5,30.25,SSW,211,4.0,14.0,76,0.00,,---,0.00,VWS V14.01,2013-01-04 18:50:00,
2013-01-04 12:52:00,31.3,24.3,30.24,SSW,199,5.0,14.0,75,0.00,,---,0.00,VWS V14.01,2013-01-04 18:52:00,
2013-01-04 12:55:00,31.4,24.4,30.24,SW,222,10.0,14.0,75,0.00,,---,0.00,VWS V14.01,2013-01-04 18:55:00,
2013-01-04 12:57:00,31.5,24.2,30.24,WSW,240,11.0,14.0,74,0.00,,---,0.00,VWS V14.01,2013-01-04 18:57:00,
2013-01-04 13:00:00,31.6,24.3,30.24,SW,230,4.0,14.0,74,0.00,,---,0.00,VWS V14.01,2013-01-04 19:00:00,
2013-01-04 13:02:00,31.6,24.3,30.24,SW,218,5.0,6.0,74,0.00,,---,0.00,VWS V14.01,2013-01-04 19:02:00,
2013-01-04 13:05:00,31.6,24.0,30.23,SW,216,6.0,15.0,73,0.00,,---,0.00,VWS V14.01,2013-01-04 19:05:00,
2013-01-04 13:06:00,31.6,24.3,30.23,WSW,238,10.0,15.0,74,0.00,,---,0.00,VWS V14.01,2013-01-04 19:06:00,
2013-01-04 13:07:00,31.6,24.3,30.23,SW,225,5.0,15.0,74,0.00,,---,0.00,VWS V14.01,2013-01-04 19:07:00,
2013-01-04 13:10:00,31.8,24.8,30.23,SSW,202,5.0,15.0,75,0.00,,---,0.00,VWS V14.01,2013-01-04 19:10:00,
2013-01-04 13:11:00,31.8,24.5,30.23,SSW,207,4.0,15.0,74,0.00,,---,0.00,VWS V14.01,2013-01-04 19:11:00,
2013-01-04 13:12:00,31.8,24.5,30.23,SW,229,9.0,15.0,74,0.00,,---,0.00,VWS V14.01,2013-01-04 19:12:00,
2013-01-04 13:15:00,31.9,24.6,30.23,SSW,207,6.0,15.0,74,0.00,,---,0.00,VWS V14.01,2013-01-04 19:15:00,
2013-01-04 13:16:00,31.9,24.6,30.23,SW,223,7.0,15.0,74,0.00,,---,0.00,VWS V14.01,2013-01-04 19:16:00,
2013-01-04 13:17:00,31.9,24.6,30.23,SW,223,11.0,15.0,74,0.00,,---,0.00,VWS V14.01,2013-01-04 19:17:00,
2013-01-04 13:21:00,31.9,24.6,30.23,SW,219,5.0,15.0,74,0.00,,---,0.00,VWS V14.01,2013-01-04 19:21:00,
2013-01-04 13:23:00,32.0,25.0,30.23,SW,228,7.0,15.0,75,0.00,,---,0.00,VWS V14.01,2013-01-04 19:23:00,
2013-01-04 13:26:00,32.2,24.9,30.23,SW,232,11.0,15.0,74,0.00,,---,0.00,VWS V14.01,2013-01-04 19:26:00,
2013-01-04 13:28:00,32.2,24.5,30.23,WSW,238,6.0,15.0,73,0.00,,---,0.00,VWS V14.01,2013-01-04 19:28:00,
2013-01-04 13:31:00,32.4,24.7,30.23,SW,229,11.0,11.0,73,0.00,,---,0.00,VWS V14.01,2013-01-04 19:31:00,
2013-01-04 13:33:00,32.4,24.7,30.23,WSW,244,6.0,12.0,73,0.00,,---,0.00,VWS V14.01,2013-01-04 19:33:00,
2013-01-04 13:36:00,32.4,24.7,30.23,SW,216,9.0,13.0,73,0.00,,---,0.00,VWS V14.01,2013-01-04 19:36:00,
2013-01-04 13:37:00,32.5,24.8,30.23,SSW,211,6.0,13.0,73,0.00,,---,0.00,VWS V14.01,2013-01-04 19:37:00,
2013-01-04 13:38:00,32.5,24.8,30.23,WSW,237,10.0,16.0,73,0.00,,---,0.00,VWS V14.01,2013-01-04 19:38:00,
2013-01-04 13:41:00,32.7,25.0,30.23,SW,234,7.0,16.0,73,0.00,,---,0.00,VWS V14.01,2013-01-04 19:41:00,
2013-01-04 13:42:00,32.7,25.0,30.23,SW,227,5.0,16.0,73,0.00,,---,0.00,VWS V14.01,2013-01-04 19:42:00,
2013-01-04 13:43:00,32.8,25.1,30.23,WSW,238,14.0,18.0,73,0.00,,---,0.00,VWS V14.01,2013-01-04 19:43:00,
2013-01-04 13:46:00,32.8,24.8,30.23,SW,229,4.0,18.0,72,0.00,,---,0.00,VWS V14.01,2013-01-04 19:46:00,
2013-01-04 13:47:00,32.9,25.2,30.23,SW,232,1.0,18.0,73,0.00,,---,0.00,VWS V14.01,2013-01-04 19:47:00,
2013-01-04 13:49:00,32.9,25.2,30.23,SW,235,6.0,18.0,73,0.00,,---,0.00,VWS V14.01,2013-01-04 19:49:00,
2013-01-04 13:51:00,32.9,25.2,30.23,SW,223,1.0,18.0,73,0.00,,---,0.00,VWS V14.01,2013-01-04 19:51:00,
2013-01-04 13:52:00,33.0,25.3,30.23,WSW,238,5.0,18.0,73,0.00,,---,0.00,VWS V14.01,2013-01-04 19:52:00,
2013-01-04 13:54:00,33.0,25.3,30.23,SW,223,6.0,18.0,73,0.00,,---,0.00,VWS V14.01,2013-01-04 19:54:00,
2013-01-04 13:56:00,33.1,25.4,30.24,SW,229,4.0,18.0,73,0.00,,---,0.00,VWS V14.01,2013-01-04 19:56:00,
2013-01-04 13:57:00,33.1,25.4,30.23,SW,232,7.0,18.0,73,0.00,,---,0.00,VWS V14.01,2013-01-04 19:57:00,
2013-01-04 13:59:00,33.2,25.5,30.23,SW,232,2.0,18.0,73,0.00,,---,0.00,VWS V14.01,2013-01-04 19:59:00,
2013-01-04 14:01:00,33.2,25.5,30.23,WSW,245,13.0,13.0,73,0.00,,---,0.00,VWS V14.01,2013-01-04 20:01:00,
2013-01-04 14:02:00,33.2,25.2,30.23,WSW,241,10.0,13.0,72,0.00,,---,0.00,VWS V14.01,2013-01-04 20:02:00,
2013-01-04 14:04:00,33.3,25.6,30.23,SW,230,11.0,13.0,73,0.00,,---,0.00,VWS V14.01,2013-01-04 20:04:00,
2013-01-04 14:06:00,33.3,25.3,30.23,WSW,244,12.0,13.0,72,0.00,,---,0.00,VWS V14.01,2013-01-04 20:06:00,
2013-01-04 14:07:00,33.3,25.3,30.23,WSW,240,7.0,13.0,72,0.00,,---,0.00,VWS V14.01,2013-01-04 20:07:00,
2013-01-04 14:09:00,33.3,25.3,30.23,WSW,244,9.0,13.0,72,0.00,,---,0.00,VWS V14.01,2013-01-04 20:09:00,
2013-01-04 14:11:00,33.4,25.4,30.23,SW,225,9.0,13.0,72,0.00,,---,0.00,VWS V14.01,2013-01-04 20:11:00,
2013-01-04 14:12:00,33.4,25.4,30.23,WSW,246,11.0,13.0,72,0.00,,---,0.00,VWS V14.01,2013-01-04 20:12:00,
2013-01-04 14:14:00,33.4,25.0,30.23,SW,232,8.0,14.0,71,0.00,,---,0.00,VWS V14.01,2013-01-04 20:14:00,
2013-01-04 14:16:00,33.4,25.0,30.23,West,261,9.0,14.0,71,0.00,,---,0.00,VWS V14.01,2013-01-04 20:16:00,
2013-01-04 14:18:00,33.4,25.0,30.23,SSW,201,6.0,14.0,71,0.00,,---,0.00,VWS V14.01,2013-01-04 20:18:00,
2013-01-04 14:19:00,33.5,25.1,30.23,SSW,209,5.0,14.0,71,0.00,,---,0.00,VWS V14.01,2013-01-04 20:19:00,
2013-01-04 14:21:00,33.7,25.3,30.23,SW,224,7.0,14.0,71,0.00,,---,0.00,VWS V14.01,2013-01-04 20:21:00,
2013-01-04 14:23:00,33.7,25.0,30.23,WSW,237,9.0,14.0,70,0.00,,---,0.00,VWS V14.01,2013-01-04 20:23:00,
2013-01-04 14:24:00,33.8,25.1,30.23,WSW,246,14.0,15.0,70,0.00,,---,0.00,VWS V14.01,2013-01-04 20:24:00,
2013-01-04 14:27:00,33.7,25.0,30.23,SW,223,7.0,15.0,70,0.00,,---,0.00,VWS V14.01,2013-01-04 20:27:00,
2013-01-04 14:28:00,33.7,25.0,30.23,SW,221,3.0,15.0,70,0.00,,---,0.00,VWS V14.01,2013-01-04 20:28:00,
2013-01-04 14:29:00,33.8,25.1,30.23,SW,215,2.0,15.0,70,0.00,,---,0.00,VWS V14.01,2013-01-04 20:29:00,
2013-01-04 14:32:00,33.9,25.2,30.23,SW,227,9.0,14.0,70,0.00,,---,0.00,VWS V14.01,2013-01-04 20:32:00,
2013-01-04 14:33:00,33.9,25.2,30.23,SW,227,5.0,14.0,70,0.00,,---,0.00,VWS V14.01,2013-01-04 20:33:00,
2013-01-04 14:34:00,33.9,25.2,30.23,SSW,211,3.0,14.0,70,0.00,,---,0.00,VWS V14.01,2013-01-04 20:34:00,
2013-01-04 14:37:00,33.9,25.5,30.23,SW,222,4.0,14.0,71,0.00,,---,0.00,VWS V14.01,2013-01-04 20:37:00,
2013-01-04 14:38:00,34.0,25.6,30.23,SSW,213,2.0,14.0,71,0.00,,---,0.00,VWS V14.01,2013-01-04 20:38:00,
2013-01-04 14:39:00,34.0,25.6,30.23,SW,217,4.0,14.0,71,0.00,,---,0.00,VWS V14.01,2013-01-04 20:39:00,
2013-01-04 14:42:00,34.0,25.6,30.23,SW,224,4.0,14.0,71,0.00,,---,0.00,VWS V14.01,2013-01-04 20:42:00,
2013-01-04 14:43:00,34.0,25.3,30.23,SW,219,3.0,14.0,70,0.00,,---,0.00,VWS V14.01,2013-01-04 20:43:00,
2013-01-04 14:44:00,34.0,25.3,30.23,SSW,209,6.0,14.0,70,0.00,,---,0.00,VWS V14.01,2013-01-04 20:44:00,
2013-01-04 14:47:00,34.0,25.3,30.24,SW,216,3.0,14.0,70,0.00,,---,0.00,VWS V14.01,2013-01-04 20:47:00,
2013-01-04 14:48:00,34.0,25.3,30.24,SW,217,2.0,14.0,70,0.00,,---,0.00,VWS V14.01,2013-01-04 20:48:00,
2013-01-04 14:49:00,34.0,25.3,30.24,SSW,207,10.0,14.0,70,0.00,,---,0.00,VWS V14.01,2013-01-04 20:49:00,
2013-01-04 14:52:00,33.9,25.2,30.24,SSW,207,6.0,14.0,70,0.00,,---,0.00,VWS V14.01,2013-01-04 20:52:00,
2013-01-04 14:53:00,33.9,25.2,30.24,SSW,200,13.0,14.0,70,0.00,,---,0.00,VWS V14.01,2013-01-04 20:53:00,
2013-01-04 14:54:00,33.9,25.2,30.24,SSW,204,6.0,14.0,70,0.00,,---,0.00,VWS V14.01,2013-01-04 20:54:00,
2013-01-04 14:55:00,33.8,24.7,30.24,WSW,238,9.0,14.0,69,0.00,,---,0.00,VWS V14.01,2013-01-04 20:55:00,
2013-01-04 14:57:00,33.8,25.1,30.24,SW,216,5.0,14.0,70,0.00,,---,0.00,VWS V14.01,2013-01-04 20:57:00,
2013-01-04 14:58:00,33.7,25.0,30.24,SW,219,7.0,14.0,70,0.00,,---,0.00,VWS V14.01,2013-01-04 20:58:00,
2013-01-04 14:59:00,33.7,25.0,30.24,SSW,210,8.0,14.0,70,0.00,,---,0.00,VWS V14.01,2013-01-04 20:59:00,
2013-01-04 15:00:00,33.7,25.0,30.24,SSW,200,11.0,14.0,70,0.00,,---,0.00,VWS V14.01,2013-01-04 21:00:00,
2013-01-04 15:02:00,33.7,25.0,30.24,WSW,237,8.0,10.0,70,0.00,,---,0.00,VWS V14.01,2013-01-04 21:02:00,
2013-01-04 15:03:00,33.7,25.0,30.24,SSW,212,12.0,12.0,70,0.00,,---,0.00,VWS V14.01,2013-01-04 21:03:00,
2013-01-04 15:04:00,33.7,25.0,30.24,SW,218,6.0,13.0,70,0.00,,---,0.00,VWS V14.01,2013-01-04 21:04:00,
2013-01-04 15:05:00,33.7,25.0,30.24,SSW,205,10.0,13.0,70,0.00,,---,0.00,VWS V14.01,2013-01-04 21:05:00,
2013-01-04 15:07:00,33.7,25.0,30.24,SSW,204,4.0,13.0,70,0.00,,---,0.00,VWS V14.01,2013-01-04 21:07:00,
2013-01-04 15:08:00,33.6,24.9,30.24,SW,218,4.0,13.0,70,0.00,,---,0.00,VWS V14.01,2013-01-04 21:08:00,
2013-01-04 15:10:00,33.7,25.0,30.24,SW,222,9.0,13.0,70,0.00,,---,0.00,VWS V14.01,2013-01-04 21:10:00,
2013-01-04 15:12:00,33.7,25.0,30.24,SW,223,6.0,13.0,70,0.00,,---,0.00,VWS V14.01,2013-01-04 21:12:00,
2013-01-04 15:13:00,33.7,25.0,30.24,SSW,207,5.0,13.0,70,0.00,,---,0.00,VWS V14.01,2013-01-04 21:13:00,
2013-01-04 15:14:00,33.8,25.1,30.24,SSW,205,3.0,13.0,70,0.00,,---,0.00,VWS V14.01,2013-01-04 21:14:00,
2013-01-04 15:15:00,33.8,25.1,30.24,SSW,206,2.0,13.0,70,0.00,,---,0.00,VWS V14.01,2013-01-04 21:15:00,
2013-01-04 15:17:00,33.8,25.1,30.24,SW,225,6.0,13.0,70,0.00,,---,0.00,VWS V14.01,2013-01-04 21:17:00,
2013-01-04 15:18:00,33.8,25.1,30.24,SSW,206,3.0,13.0,70,0.00,,---,0.00,VWS V14.01,2013-01-04 21:18:00,
2013-01-04 15:20:00,33.9,25.2,30.24,SW,218,4.0,13.0,70,0.00,,---,0.00,VWS V14.01,2013-01-04 21:20:00,
2013-01-04 15:22:00,33.8,25.1,30.24,SW,223,10.0,13.0,70,0.00,,---,0.00,VWS V14.01,2013-01-04 21:22:00,
2013-01-04 15:24:00,33.8,25.1,30.24,SSW,212,2.0,13.0,70,0.00,,---,0.00,VWS V14.01,2013-01-04 21:24:00,
2013-01-04 15:25:00,33.8,25.1,30.24,SW,227,3.0,13.0,70,0.00,,---,0.00,VWS V14.01,2013-01-04 21:25:00,
2013-01-04 15:27:00,33.7,25.0,30.24,SW,218,3.0,13.0,70,0.00,,---,0.00,VWS V14.01,2013-01-04 21:27:00,
2013-01-04 15:34:00,33.7,25.0,30.24,WSW,252,6.0,13.0,70,0.00,,---,0.00,VWS V14.01,2013-01-04 21:34:00,
2013-01-04 15:39:00,33.7,25.3,30.24,SW,217,4.0,13.0,71,0.00,,---,0.00,VWS V14.01,2013-01-04 21:39:00,
2013-01-04 15:44:00,33.8,25.1,30.24,WSW,240,5.0,13.0,70,0.00,,---,0.00,VWS V14.01,2013-01-04 21:44:00,
2013-01-04 15:45:00,33.8,25.1,30.24,SSW,213,2.0,13.0,70,0.00,,---,0.00,VWS V14.01,2013-01-04 21:45:00,
2013-01-04 15:49:00,33.8,25.1,30.24,SSW,207,1.0,13.0,70,0.00,,---,0.00,VWS V14.01,2013-01-04 21:49:00,
2013-01-04 15:50:00,33.7,25.0,30.24,SSW,201,3.0,13.0,70,0.00,,---,0.00,VWS V14.01,2013-01-04 21:50:00,
2013-01-04 15:54:00,33.6,24.9,30.24,SSW,209,3.0,13.0,70,0.00,,---,0.00,VWS V14.01,2013-01-04 21:54:00,
2013-01-04 15:55:00,33.6,24.9,30.24,SSW,210,2.0,13.0,70,0.00,,---,0.00,VWS V14.01,2013-01-04 21:55:00,
2013-01-04 16:00:00,33.6,24.9,30.24,SSW,196,5.0,13.0,70,0.00,,---,0.00,VWS V14.01,2013-01-04 22:00:00,
2013-01-04 16:05:00,33.5,24.8,30.23,SSW,197,3.0,9.0,70,0.00,,---,0.00,VWS V14.01,2013-01-04 22:05:00,
2013-01-04 16:10:00,33.5,24.8,30.23,SSW,200,4.0,11.0,70,0.00,,---,0.00,VWS V14.01,2013-01-04 22:10:00,
2013-01-04 16:11:00,33.4,24.7,30.23,SSW,213,3.0,11.0,70,0.00,,---,0.00,VWS V14.01,2013-01-04 22:11:00,
2013-01-04 16:15:00,33.4,24.7,30.23,SW,229,7.0,11.0,70,0.00,,---,0.00,VWS V14.01,2013-01-04 22:15:00,
2013-01-04 16:16:00,33.4,24.7,30.23,SW,236,2.0,11.0,70,0.00,,---,0.00,VWS V14.01,2013-01-04 22:16:00,
2013-01-04 16:20:00,33.2,24.5,30.23,SW,233,3.0,11.0,70,0.00,,---,0.00,VWS V14.01,2013-01-04 22:20:00,
2013-01-04 16:21:00,33.1,24.4,30.23,SW,232,1.0,11.0,70,0.00,,---,0.00,VWS V14.01,2013-01-04 22:21:00,
2013-01-04 16:25:00,33.0,24.3,30.23,SSW,192,2.0,11.0,70,0.00,,---,0.00,VWS V14.01,2013-01-04 22:25:00,
2013-01-04 16:26:00,33.0,24.3,30.23,SSW,211,2.0,11.0,70,0.00,,---,0.00,VWS V14.01,2013-01-04 22:26:00,
2013-01-04 16:30:00,32.9,24.2,30.23,SSW,205,2.0,11.0,70,0.00,,---,0.00,VWS V14.01,2013-01-04 22:30:00,
2013-01-04 16:31:00,32.8,24.1,30.23,SW,229,2.0,5.0,70,0.00,,---,0.00,VWS V14.01,2013-01-04 22:31:00,
2013-01-04 16:35:00,32.6,23.9,30.23,SSW,205,4.0,7.0,70,0.00,,---,0.00,VWS V14.01,2013-01-04 22:35:00,
2013-01-04 16:36:00,32.5,23.8,30.23,SSW,200,3.0,7.0,70,0.00,,---,0.00,VWS V14.01,2013-01-04 22:36:00,
2013-01-04 16:40:00,32.3,24.0,30.23,SSW,203,5.0,7.0,71,0.00,,---,0.00,VWS V14.01,2013-01-04 22:40:00,
2013-01-04 16:41:00,32.3,24.0,30.23,SSW,201,5.0,7.0,71,0.00,,---,0.00,VWS V14.01,2013-01-04 22:41:00,
2013-01-04 16:45:00,31.9,23.6,30.23,SSW,196,4.0,7.0,71,0.01,,---,0.01,VWS V14.01,2013-01-04 22:45:00,
2013-01-04 16:46:00,31.9,23.6,30.23,SSW,198,5.0,7.0,71,0.01,,---,0.01,VWS V14.01,2013-01-04 22:46:00,
2013-01-04 16:50:00,31.8,23.8,30.23,SSW,192,5.0,7.0,72,0.01,,---,0.01,VWS V14.01,2013-01-04 22:50:00,
2013-01-04 16:51:00,31.7,23.7,30.23,SSW,192,5.0,7.0,72,0.01,,---,0.01,VWS V14.01,2013-01-04 22:51:00,
2013-01-04 16:55:00,31.5,23.5,30.23,SSW,198,3.0,8.0,72,0.01,,---,0.01,VWS V14.01,2013-01-04 22:55:00,
2013-01-04 16:56:00,31.5,23.5,30.23,SSW,198,4.0,8.0,72,0.01,,---,0.01,VWS V14.01,2013-01-04 22:56:00,
2013-01-04 17:01:00,31.3,23.3,30.23,SSW,203,4.0,4.0,72,0.01,,---,0.01,VWS V14.01,2013-01-04 23:01:00,
2013-01-04 17:06:00,31.3,23.3,30.24,SSW,200,2.0,9.0,72,0.01,,---,0.01,VWS V14.01,2013-01-04 23:06:00,
2013-01-04 17:11:00,31.1,23.1,30.24,SSW,196,3.0,9.0,72,0.01,,---,0.01,VWS V14.01,2013-01-04 23:11:00,
2013-01-04 17:12:00,31.0,23.0,30.24,SSW,197,1.0,9.0,72,0.01,,---,0.01,VWS V14.01,2013-01-04 23:12:00,
2013-01-04 17:16:00,30.8,22.9,30.24,South,190,6.0,9.0,72,0.01,,---,0.01,VWS V14.01,2013-01-04 23:16:00,
2013-01-04 17:17:00,30.8,22.9,30.24,SSW,196,2.0,9.0,72,0.01,,---,0.01,VWS V14.01,2013-01-04 23:17:00,
2013-01-04 17:18:00,30.8,22.9,30.24,SSW,211,2.0,9.0,72,0.01,,---,0.01,VWS V14.01,2013-01-04 23:18:00,
2013-01-04 17:21:00,30.7,22.8,30.24,SSW,197,3.0,9.0,72,0.01,,---,0.01,VWS V14.01,2013-01-04 23:21:00,
2013-01-04 17:22:00,30.6,22.7,30.24,SSW,196,5.0,9.0,72,0.01,,---,0.01,VWS V14.01,2013-01-04 23:22:00,
2013-01-04 17:23:00,30.6,22.7,30.24,SSW,197,4.0,9.0,72,0.01,,---,0.01,VWS V14.01,2013-01-04 23:23:00,
2013-01-04 17:26:00,30.6,22.7,30.24,SSW,199,6.0,9.0,72,0.01,,---,0.01,VWS V14.01,2013-01-04 23:26:00,
2013-01-04 17:27:00,30.6,22.7,30.24,South,190,5.0,9.0,72,0.01,,---,0.01,VWS V14.01,2013-01-04 23:27:00,
2013-01-04 17:28:00,30.6,22.7,30.24,SSW,205,5.0,9.0,72,0.01,,---,0.01,VWS V14.01,2013-01-04 23:28:00,
2013-01-04 17:31:00,30.7,22.8,30.24,SSW,205,3.0,6.0,72,0.01,,---,0.01,VWS V14.01,2013-01-04 23:31:00,
2013-01-04 17:32:00,30.7,22.8,30.24,SSW,207,2.0,6.0,72,0.01,,---,0.01,VWS V14.01,2013-01-04 23:32:00,
2013-01-04 17:33:00,30.7,22.4,30.24,SSW,200,4.0,6.0,71,0.01,,---,0.01,VWS V14.01,2013-01-04 23:33:00,
2013-01-04 17:36:00,30.6,22.7,30.24,SSW,202,4.0,7.0,72,0.01,,---,0.01,VWS V14.01,2013-01-04 23:36:00,
2013-01-04 17:37:00,30.6,22.7,30.24,SSW,202,2.0,7.0,72,0.01,,---,0.01,VWS V14.01,2013-01-04 23:37:00,
2013-01-04 17:38:00,30.6,22.3,30.24,SSW,199,2.0,7.0,71,0.01,,---,0.01,VWS V14.01,2013-01-04 23:38:00,
2013-01-04 17:41:00,30.6,22.3,30.24,SSW,202,2.0,7.0,71,0.01,,---,0.01,VWS V14.01,2013-01-04 23:41:00,
2013-01-04 17:42:00,30.6,22.3,30.24,SSW,202,4.0,7.0,71,0.01,,---,0.01,VWS V14.01,2013-01-04 23:42:00,
2013-01-04 17:43:00,30.6,22.3,30.24,SSW,202,4.0,7.0,71,0.01,,---,0.01,VWS V14.01,2013-01-04 23:43:00,
2013-01-04 17:46:00,30.4,22.1,30.24,SSW,202,3.0,7.0,71,0.01,,---,0.01,VWS V14.01,2013-01-04 23:46:00,
2013-01-04 17:47:00,30.4,22.1,30.24,SSW,202,2.0,7.0,71,0.01,,---,0.01,VWS V14.01,2013-01-04 23:47:00,
2013-01-04 17:48:00,30.3,22.0,30.24,SSW,202,3.0,7.0,71,0.01,,---,0.01,VWS V14.01,2013-01-04 23:48:00,
2013-01-04 17:51:00,30.1,21.9,30.24,SSW,202,1.0,7.0,71,0.01,,---,0.01,VWS V14.01,2013-01-04 23:51:00,
2013-01-04 17:52:00,30.1,21.9,30.24,SSW,202,3.0,7.0,71,0.01,,---,0.01,VWS V14.01,2013-01-04 23:52:00,
2013-01-04 17:53:00,30.0,21.8,30.24,SSW,202,3.0,7.0,71,0.01,,---,0.01,VWS V14.01,2013-01-04 23:53:00,
2013-01-04 17:54:00,30.0,22.1,30.24,SSW,202,3.0,7.0,72,0.01,,---,0.01,VWS V14.01,2013-01-04 23:54:00,
2013-01-04 17:57:00,29.9,22.0,30.24,SSW,202,0.0,7.0,72,0.01,,---,0.01,VWS V14.01,2013-01-04 23:57:00,
2013-01-04 17:58:00,29.8,21.9,30.24,SSW,201,0.0,7.0,72,0.01,,---,0.01,VWS V14.01,2013-01-04 23:58:00,
2013-01-04 17:59:00,29.8,21.9,30.24,SSW,201,4.0,7.0,72,0.01,,---,0.01,VWS V14.01,2013-01-04 23:59:00,
2013-01-04 18:02:00,29.7,21.5,30.24,SSW,200,2.0,3.0,71,0.00,,---,0.01,VWS V14.01,2013-01-05 00:02:00,
2013-01-04 18:03:00,29.5,21.3,30.24,SSW,200,2.0,3.0,71,0.00,,---,0.01,VWS V14.01,2013-01-05 00:03:00,
2013-01-04 18:04:00,29.5,21.3,30.24,SSW,200,3.0,3.0,71,0.00,,---,0.01,VWS V14.01,2013-01-05 00:04:00,
2013-01-04 18:07:00,29.4,21.5,30.24,SSW,200,4.0,5.0,72,0.00,,---,0.01,VWS V14.01,2013-01-05 00:07:00,
2013-01-04 18:09:00,29.3,21.4,30.24,SSW,200,5.0,5.0,72,0.00,,---,0.01,VWS V14.01,2013-01-05 00:09:00,
2013-01-04 18:12:00,29.3,21.4,30.24,SSW,198,2.0,6.0,72,0.00,,---,0.01,VWS V14.01,2013-01-05 00:12:00,
2013-01-04 18:14:00,29.3,21.4,30.24,SSW,197,3.0,6.0,72,0.00,,---,0.01,VWS V14.01,2013-01-05 00:14:00,
2013-01-04 18:17:00,29.4,21.5,30.24,SSW,192,5.0,6.0,72,0.00,,---,0.01,VWS V14.01,2013-01-05 00:17:00,
2013-01-04 18:18:00,29.4,21.5,30.24,SSW,193,4.0,6.0,72,0.00,,---,0.01,VWS V14.01,2013-01-05 00:18:00,
2013-01-04 18:19:00,29.4,21.5,30.24,South,188,4.0,6.0,72,0.00,,---,0.01,VWS V14.01,2013-01-05 00:19:00,
2013-01-04 18:23:00,29.4,21.5,30.24,South,189,2.0,6.0,72,0.00,,---,0.01,VWS V14.01,2013-01-05 00:23:00,
2013-01-04 18:24:00,29.4,21.5,30.24,South,190,3.0,6.0,72,0.00,,---,0.01,VWS V14.01,2013-01-05 00:24:00,
2013-01-04 18:25:00,29.4,21.5,30.24,South,189,4.0,6.0,72,0.00,,---,0.01,VWS V14.01,2013-01-05 00:25:00,
2013-01-04 18:28:00,29.4,21.5,30.24,South,183,2.0,7.0,72,0.00,,---,0.01,VWS V14.01,2013-01-05 00:28:00,
2013-01-04 18:29:00,29.4,21.5,30.24,South,184,3.0,7.0,72,0.00,,---,0.01,VWS V14.01,2013-01-05 00:29:00,
2013-01-04 18:30:00,29.4,21.5,30.24,South,185,2.0,7.0,72,0.00,,---,0.01,VWS V14.01,2013-01-05 00:30:00,
2013-01-04 18:33:00,29.4,21.5,30.25,South,186,4.0,7.0,72,0.00,,---,0.01,VWS V14.01,2013-01-05 00:33:00,
2013-01-04 18:34:00,29.4,21.5,30.25,South,186,3.0,7.0,72,0.00,,---,0.01,VWS V14.01,2013-01-05 00:34:00,
2013-01-04 18:35:00,29.4,21.5,30.25,South,186,2.0,7.0,72,0.00,,---,0.01,VWS V14.01,2013-01-05 00:35:00,
2013-01-04 18:38:00,29.4,21.5,30.25,South,188,5.0,7.0,72,0.00,,---,0.01,VWS V14.01,2013-01-05 00:38:00,
2013-01-04 18:40:00,29.4,21.5,30.24,South,190,6.0,7.0,72,0.00,,---,0.01,VWS V14.01,2013-01-05 00:40:00,
2013-01-04 18:43:00,29.6,21.7,30.24,SSW,200,6.0,9.0,72,0.00,,---,0.01,VWS V14.01,2013-01-05 00:43:00,
2013-01-04 18:45:00,29.8,21.6,30.25,SSW,196,5.0,9.0,71,0.00,,---,0.01,VWS V14.01,2013-01-05 00:45:00,
2013-01-04 18:48:00,30.0,21.8,30.24,South,184,6.0,9.0,71,0.00,,---,0.01,VWS V14.01,2013-01-05 00:48:00,
2013-01-04 18:50:00,30.1,21.9,30.24,South,190,5.0,9.0,71,0.00,,---,0.01,VWS V14.01,2013-01-05 00:50:00,
2013-01-04 18:53:00,30.3,21.7,30.24,SSW,194,5.0,11.0,70,0.00,,---,0.01,VWS V14.01,2013-01-05 00:53:00,
2013-01-04 18:55:00,30.4,21.8,30.24,SSW,195,4.0,11.0,70,0.00,,---,0.01,VWS V14.01,2013-01-05 00:55:00,
2013-01-04 18:58:00,30.5,21.9,30.25,South,177,4.0,11.0,70,0.00,,---,0.01,VWS V14.01,2013-01-05 00:58:00,
2013-01-04 19:00:00,30.6,22.0,30.24,South,178,7.0,11.0,70,0.00,,---,0.01,VWS V14.01,2013-01-05 01:00:00,
2013-01-04 19:01:00,30.7,22.1,30.25,SSW,194,10.0,10.0,70,0.00,,---,0.01,VWS V14.01,2013-01-05 01:01:00,
2013-01-04 19:03:00,30.8,21.9,30.25,SSW,192,7.0,11.0,69,0.00,,---,0.01,VWS V14.01,2013-01-05 01:03:00,
2013-01-04 19:05:00,30.9,21.9,30.25,South,188,5.0,11.0,69,0.00,,---,0.01,VWS V14.01,2013-01-05 01:05:00,
2013-01-04 19:06:00,30.9,21.9,30.25,SSW,193,5.0,11.0,69,0.00,,---,0.01,VWS V14.01,2013-01-05 01:06:00,
2013-01-04 19:08:00,30.8,21.9,30.25,South,179,3.0,11.0,69,0.00,,---,0.01,VWS V14.01,2013-01-05 01:08:00,
2013-01-04 19:11:00,30.7,21.8,30.25,SSW,194,3.0,11.0,69,0.00,,---,0.01,VWS V14.01,2013-01-05 01:11:00,
2013-01-04 19:13:00,30.6,21.6,30.25,SSW,196,5.0,11.0,69,0.00,,---,0.01,VWS V14.01,2013-01-05 01:13:00,
2013-01-04 19:14:00,30.6,21.6,30.25,South,184,5.0,11.0,69,0.00,,---,0.01,VWS V14.01,2013-01-05 01:14:00,
2013-01-04 19:16:00,30.6,21.6,30.25,SSW,201,3.0,11.0,69,0.00,,---,0.01,VWS V14.01,2013-01-05 01:16:00,
2013-01-04 19:18:00,30.6,21.6,30.25,SSW,198,3.0,11.0,69,0.00,,---,0.01,VWS V14.01,2013-01-05 01:18:00,
2013-01-04 19:19:00,30.6,21.6,30.25,SSW,199,3.0,11.0,69,0.00,,---,0.01,VWS V14.01,2013-01-05 01:19:00,
2013-01-04 19:21:00,30.6,21.6,30.25,SSW,198,3.0,11.0,69,0.00,,---,0.01,VWS V14.01,2013-01-05 01:21:00,
2013-01-04 19:23:00,30.6,21.6,30.25,SSW,195,4.0,11.0,69,0.00,,---,0.01,VWS V14.01,2013-01-05 01:23:00,
2013-01-04 19:24:00,30.7,21.8,30.25,SSW,194,3.0,11.0,69,0.00,,---,0.01,VWS V14.01,2013-01-05 01:24:00,
2013-01-04 19:26:00,30.7,21.8,30.25,South,189,3.0,11.0,69,0.00,,---,0.01,VWS V14.01,2013-01-05 01:26:00,
2013-01-04 19:28:00,30.7,21.8,30.25,South,186,3.0,11.0,69,0.00,,---,0.01,VWS V14.01,2013-01-05 01:28:00,
2013-01-04 19:29:00,30.7,21.8,30.25,SSW,205,4.0,11.0,69,0.00,,---,0.01,VWS V14.01,2013-01-05 01:29:00,
2013-01-04 19:31:00,30.6,21.6,30.25,South,188,5.0,6.0,69,0.00,,---,0.01,VWS V14.01,2013-01-05 01:31:00,
2013-01-04 19:33:00,30.5,21.6,30.25,SSW,198,4.0,7.0,69,0.00,,---,0.01,VWS V14.01,2013-01-05 01:33:00,
2013-01-04 19:34:00,30.5,21.6,30.25,SSW,198,4.0,7.0,69,0.00,,---,0.01,VWS V14.01,2013-01-05 01:34:00,
2013-01-04 19:36:00,30.4,21.5,30.24,South,186,6.0,8.0,69,0.00,,---,0.01,VWS V14.01,2013-01-05 01:36:00,
2013-01-04 19:37:00,30.4,21.5,30.24,SSW,207,9.0,9.0,69,0.00,,---,0.01,VWS V14.01,2013-01-05 01:37:00,
2013-01-04 19:38:00,30.3,21.4,30.24,SSW,199,7.0,9.0,69,0.00,,---,0.01,VWS V14.01,2013-01-05 01:38:00,
2013-01-04 19:39:00,30.3,21.4,30.24,South,190,6.0,9.0,69,0.00,,---,0.01,VWS V14.01,2013-01-05 01:39:00,
2013-01-04 19:41:00,30.3,21.7,30.24,SSW,194,6.0,9.0,70,0.00,,---,0.01,VWS V14.01,2013-01-05 01:41:00,
2013-01-04 19:42:00,30.3,21.7,30.24,SSW,205,5.0,9.0,70,0.00,,---,0.01,VWS V14.01,2013-01-05 01:42:00,
2013-01-04 19:43:00,30.3,21.7,30.24,SSW,200,4.0,9.0,70,0.00,,---,0.01,VWS V14.01,2013-01-05 01:43:00,
2013-01-04 19:44:00,30.3,21.7,30.24,SSW,205,4.0,9.0,70,0.00,,---,0.01,VWS V14.01,2013-01-05 01:44:00,
2013-01-04 19:46:00,30.3,21.4,30.24,SSW,198,2.0,9.0,69,0.00,,---,0.01,VWS V14.01,2013-01-05 01:46:00,
2013-01-04 19:47:00,30.3,21.4,30.24,SSW,198,4.0,9.0,69,0.00,,---,0.01,VWS V14.01,2013-01-05 01:47:00,
2013-01-04 19:48:00,30.3,21.4,30.24,SW,219,6.0,9.0,69,0.00,,---,0.01,VWS V14.01,2013-01-05 01:48:00,
2013-01-04 19:49:00,30.3,21.7,30.24,SSW,194,5.0,9.0,70,0.00,,---,0.01,VWS V14.01,2013-01-05 01:49:00,
2013-01-04 19:51:00,30.2,21.3,30.24,SSW,196,3.0,9.0,69,0.00,,---,0.01,VWS V14.01,2013-01-05 01:51:00,
2013-01-04 19:52:00,30.2,21.6,30.24,SSW,200,1.0,9.0,70,0.00,,---,0.01,VWS V14.01,2013-01-05 01:52:00,
2013-01-04 19:53:00,30.1,21.5,30.24,SSW,202,4.0,9.0,70,0.00,,---,0.01,VWS V14.01,2013-01-05 01:53:00,
2013-01-04 19:54:00,30.0,21.4,30.24,SSW,206,3.0,9.0,70,0.00,,---,0.01,VWS V14.01,2013-01-05 01:54:00,
2013-01-04 19:57:00,30.0,21.4,30.24,SSW,205,1.0,9.0,70,0.00,,---,0.01,VWS V14.01,2013-01-05 01:57:00,
2013-01-04 19:59:00,30.0,21.4,30.24,SSW,202,5.0,9.0,70,0.00,,---,0.01,VWS V14.01,2013-01-05 01:59:00,
2013-01-04 20:02:00,29.9,21.3,30.23,SSW,194,3.0,6.0,70,0.00,,---,0.01,VWS V14.01,2013-01-05 02:02:00,
2013-01-04 20:04:00,29.8,21.2,30.23,SSW,198,5.0,7.0,70,0.00,,---,0.01,VWS V14.01,2013-01-05 02:04:00,
2013-01-04 20:07:00,29.7,21.1,30.23,SSW,203,4.0,7.0,70,0.00,,---,0.01,VWS V14.01,2013-01-05 02:07:00,
2013-01-04 20:09:00,29.5,20.9,30.23,SSW,198,5.0,8.0,70,0.00,,---,0.01,VWS V14.01,2013-01-05 02:09:00,
2013-01-04 20:10:00,29.5,20.9,30.23,SSW,205,6.0,8.0,70,0.00,,---,0.01,VWS V14.01,2013-01-05 02:10:00,
2013-01-04 20:12:00,29.5,20.9,30.23,SSW,200,3.0,8.0,70,0.00,,---,0.01,VWS V14.01,2013-01-05 02:12:00,
2013-01-04 20:14:00,29.3,20.7,30.23,SSW,193,6.0,8.0,70,0.00,,---,0.01,VWS V14.01,2013-01-05 02:14:00,
2013-01-04 20:15:00,29.3,20.7,30.24,SSW,194,6.0,8.0,70,0.00,,---,0.01,VWS V14.01,2013-01-05 02:15:00,
2013-01-04 20:17:00,29.2,21.0,30.24,SSW,197,1.0,8.0,71,0.00,,---,0.01,VWS V14.01,2013-01-05 02:17:00,
2013-01-04 20:18:00,29.1,20.9,30.24,SSW,197,3.0,8.0,71,0.00,,---,0.01,VWS V14.01,2013-01-05 02:18:00,
2013-01-04 20:19:00,29.1,20.9,30.24,SSW,194,3.0,8.0,71,0.00,,---,0.01,VWS V14.01,2013-01-05 02:19:00,
2013-01-04 20:20:00,29.0,20.8,30.24,SSW,194,2.0,8.0,71,0.00,,---,0.01,VWS V14.01,2013-01-05 02:20:00,
2013-01-04 20:22:00,28.9,20.7,30.23,SSW,195,3.0,8.0,71,0.00,,---,0.01,VWS V14.01,2013-01-05 02:22:00,
2013-01-04 20:23:00,28.8,20.6,30.23,SSW,195,2.0,8.0,71,0.00,,---,0.01,VWS V14.01,2013-01-05 02:23:00,
2013-01-04 20:24:00,28.8,20.6,30.23,South,188,4.0,8.0,71,0.00,,---,0.01,VWS V14.01,2013-01-05 02:24:00,
2013-01-04 20:25:00,28.8,20.6,30.23,SSW,193,3.0,8.0,71,0.00,,---,0.01,VWS V14.01,2013-01-05 02:25:00,
2013-01-04 20:27:00,28.8,20.9,30.23,South,189,5.0,8.0,72,0.00,,---,0.01,VWS V14.01,2013-01-05 02:27:00,
2013-01-04 20:28:00,28.8,20.9,30.23,South,180,4.0,8.0,72,0.00,,---,0.01,VWS V14.01,2013-01-05 02:28:00,
2013-01-04 20:29:00,28.8,20.9,30.23,South,180,3.0,8.0,72,0.00,,---,0.01,VWS V14.01,2013-01-05 02:29:00,
2013-01-04 20:30:00,28.8,20.9,30.23,SSW,195,9.0,9.0,72,0.00,,---,0.01,VWS V14.01,2013-01-05 02:30:00,
2013-01-04 20:33:00,28.8,20.9,30.23,South,178,5.0,6.0,72,0.00,,---,0.01,VWS V14.01,2013-01-05 02:33:00,
2013-01-04 20:34:00,28.8,20.9,30.23,SSW,198,5.0,6.0,72,0.00,,---,0.01,VWS V14.01,2013-01-05 02:34:00,
2013-01-04 20:35:00,28.8,20.9,30.23,South,189,10.0,10.0,72,0.00,,---,0.01,VWS V14.01,2013-01-05 02:35:00,
2013-01-04 20:38:00,29.1,20.9,30.23,South,188,5.0,10.0,71,0.00,,---,0.01,VWS V14.01,2013-01-05 02:38:00,
2013-01-04 20:39:00,29.1,20.9,30.23,SSW,196,6.0,10.0,71,0.00,,---,0.01,VWS V14.01,2013-01-05 02:39:00,
2013-01-04 20:40:00,29.1,20.9,30.23,SSW,196,5.0,10.0,71,0.00,,---,0.01,VWS V14.01,2013-01-05 02:40:00,
2013-01-04 20:43:00,29.2,21.0,30.23,SSW,195,6.0,10.0,71,0.00,,---,0.01,VWS V14.01,2013-01-05 02:43:00,
2013-01-04 20:44:00,29.2,21.0,30.23,South,182,7.0,10.0,71,0.00,,---,0.01,VWS V14.01,2013-01-05 02:44:00,
2013-01-04 20:45:00,29.2,21.0,30.23,SSW,193,7.0,10.0,71,0.00,,---,0.01,VWS V14.01,2013-01-05 02:45:00,
2013-01-04 20:48:00,29.3,21.1,30.23,SSW,200,7.0,10.0,71,0.00,,---,0.01,VWS V14.01,2013-01-05 02:48:00,
2013-01-04 20:49:00,29.3,22.7,30.23,SSW,199,3.0,10.0,76,0.00,,---,0.01,VWS V14.01,2013-01-05 02:49:00,
2013-01-04 20:50:00,29.3,21.1,30.23,South,191,6.0,10.0,71,0.00,,---,0.01,VWS V14.01,2013-01-05 02:50:00,
2013-01-04 20:53:00,29.3,22.7,30.23,SSW,195,4.0,12.0,76,0.00,,---,0.01,VWS V14.01,2013-01-05 02:53:00,
2013-01-04 20:54:00,29.2,21.0,30.23,South,189,5.0,12.0,71,0.00,,---,0.01,VWS V14.01,2013-01-05 02:54:00,
2013-01-04 20:55:00,29.2,21.0,30.23,SSW,201,6.0,12.0,71,0.00,,---,0.01,VWS V14.01,2013-01-05 02:55:00,
2013-01-04 20:58:00,29.1,20.9,30.23,SSW,192,9.0,12.0,71,0.00,,---,0.01,VWS V14.01,2013-01-05 02:58:00,
2013-01-04 20:59:00,29.1,20.9,30.23,SSW,196,7.0,12.0,71,0.00,,---,0.01,VWS V14.01,2013-01-05 02:59:00,
2013-01-04 21:00:00,29.2,21.0,30.23,SSW,207,10.0,12.0,71,0.00,,---,0.01,VWS V14.01,2013-01-05 03:00:00,
2013-01-04 21:03:00,29.2,21.0,30.23,SSW,195,6.0,12.0,71,0.00,,---,0.01,VWS V14.01,2013-01-05 03:03:00,
2013-01-04 21:04:00,29.1,20.9,30.23,South,190,7.0,12.0,71,0.00,,---,0.01,VWS V14.01,2013-01-05 03:04:00,
2013-01-04 21:05:00,29.2,21.0,30.23,SSW,203,9.0,12.0,71,0.00,,---,0.01,VWS V14.01,2013-01-05 03:05:00,
2013-01-04 21:08:00,29.2,21.0,30.23,SSW,206,8.0,12.0,71,0.00,,---,0.01,VWS V14.01,2013-01-05 03:08:00,
2013-01-04 21:09:00,29.2,21.0,30.23,South,178,7.0,12.0,71,0.00,,---,0.01,VWS V14.01,2013-01-05 03:09:00,
2013-01-04 21:10:00,29.2,21.0,30.23,South,183,6.0,12.0,71,0.00,,---,0.01,VWS V14.01,2013-01-05 03:10:00,
2013-01-04 21:13:00,29.2,21.0,30.23,South,188,9.0,12.0,71,0.00,,---,0.01,VWS V14.01,2013-01-05 03:13:00,
2013-01-04 21:14:00,29.2,21.0,30.23,South,187,7.0,12.0,71,0.00,,---,0.01,VWS V14.01,2013-01-05 03:14:00,
2013-01-04 21:15:00,29.1,20.9,30.23,SSW,193,7.0,12.0,71,0.00,,---,0.01,VWS V14.01,2013-01-05 03:15:00,
2013-01-04 21:18:00,29.0,20.8,30.22,South,184,6.0,12.0,71,0.00,,---,0.01,VWS V14.01,2013-01-05 03:18:00,
2013-01-04 21:19:00,29.0,20.8,30.22,South,187,4.0,12.0,71,0.00,,---,0.01,VWS V14.01,2013-01-05 03:19:00,
2013-01-04 21:20:00,29.0,20.8,30.22,SSW,206,11.0,12.0,71,0.00,,---,0.01,VWS V14.01,2013-01-05 03:20:00,
2013-01-04 21:24:00,29.0,20.8,30.22,SSW,200,10.0,17.0,71,0.00,,---,0.01,VWS V14.01,2013-01-05 03:24:00,
2013-01-04 21:25:00,29.1,20.9,30.22,SSW,213,10.0,17.0,71,0.00,,---,0.01,VWS V14.01,2013-01-05 03:25:00,
2013-01-04 21:29:00,29.1,20.5,30.23,South,173,10.0,17.0,70,0.00,,---,0.01,VWS V14.01,2013-01-05 03:29:00,
2013-01-04 21:30:00,29.0,20.8,30.22,SSW,194,8.0,17.0,71,0.00,,---,0.01,VWS V14.01,2013-01-05 03:30:00,
2013-01-04 21:34:00,28.8,20.6,30.22,SSW,192,5.0,10.0,71,0.00,,---,0.01,VWS V14.01,2013-01-05 03:34:00,
2013-01-04 21:35:00,28.8,20.6,30.22,SSW,202,5.0,10.0,71,0.00,,---,0.01,VWS V14.01,2013-01-05 03:35:00,
2013-01-04 21:39:00,28.7,20.5,30.22,SSW,209,7.0,10.0,71,0.00,,---,0.01,VWS V14.01,2013-01-05 03:39:00,
2013-01-04 21:40:00,28.7,20.5,30.22,South,186,6.0,11.0,71,0.00,,---,0.01,VWS V14.01,2013-01-05 03:40:00,
2013-01-04 21:41:00,28.7,20.5,30.22,SSW,207,11.0,11.0,71,0.00,,---,0.01,VWS V14.01,2013-01-05 03:41:00,
2013-01-04 21:44:00,28.8,20.6,30.22,SSW,198,7.0,12.0,71,0.00,,---,0.01,VWS V14.01,2013-01-05 03:44:00,
2013-01-04 21:45:00,28.8,20.6,30.22,SSW,207,10.0,12.0,71,0.00,,---,0.01,VWS V14.01,2013-01-05 03:45:00,
2013-01-04 21:46:00,28.8,20.6,30.22,SSW,199,5.0,12.0,71,0.00,,---,0.01,VWS V14.01,2013-01-05 03:46:00,
2013-01-04 21:49:00,28.9,20.7,30.22,South,191,11.0,12.0,71,0.00,,---,0.01,VWS V14.01,2013-01-05 03:49:00,
2013-01-04 21:50:00,28.9,20.4,30.22,South,191,7.0,12.0,70,0.00,,---,0.01,VWS V14.01,2013-01-05 03:50:00,
2013-01-04 21:51:00,28.9,20.4,30.22,SSW,200,7.0,12.0,70,0.00,,---,0.01,VWS V14.01,2013-01-05 03:51:00,
2013-01-04 21:54:00,28.8,20.3,30.22,SSW,205,11.0,14.0,70,0.00,,---,0.01,VWS V14.01,2013-01-05 03:54:00,
2013-01-04 21:56:00,28.9,20.4,30.22,SSW,198,9.0,14.0,70,0.00,,---,0.01,VWS V14.01,2013-01-05 03:56:00,
2013-01-04 21:59:00,28.8,20.3,30.22,SSW,194,5.0,14.0,70,0.00,,---,0.01,VWS V14.01,2013-01-05 03:59:00,
2013-01-04 22:00:00,28.7,20.2,30.22,South,186,7.0,14.0,70,0.00,,---,0.01,VWS V14.01,2013-01-05 04:00:00,
2013-01-04 22:01:00,28.7,20.2,30.22,SSW,201,4.0,6.0,70,0.00,,---,0.01,VWS V14.01,2013-01-05 04:01:00,
2013-01-04 22:05:00,28.6,20.4,30.22,South,182,8.0,10.0,71,0.00,,---,0.01,VWS V14.01,2013-01-05 04:05:00,
2013-01-04 22:06:00,28.6,20.4,30.22,SSW,202,8.0,10.0,71,0.00,,---,0.01,VWS V14.01,2013-01-05 04:06:00,
2013-01-04 22:10:00,28.7,20.5,30.22,SSW,200,6.0,11.0,71,0.00,,---,0.01,VWS V14.01,2013-01-05 04:10:00,
2013-01-04 22:11:00,28.7,20.2,30.22,South,178,10.0,11.0,70,0.00,,---,0.01,VWS V14.01,2013-01-05 04:11:00,
2013-01-04 22:15:00,28.7,20.5,30.22,SSW,197,6.0,11.0,71,0.00,,---,0.01,VWS V14.01,2013-01-05 04:15:00,
2013-01-04 22:16:00,28.7,20.5,30.23,SSW,202,4.0,11.0,71,0.00,,---,0.01,VWS V14.01,2013-01-05 04:16:00,
2013-01-04 22:20:00,28.7,20.5,30.23,SSW,200,7.0,13.0,71,0.00,,---,0.01,VWS V14.01,2013-01-05 04:20:00,
2013-01-04 22:21:00,28.8,20.6,30.22,SSW,194,9.0,13.0,71,0.00,,---,0.01,VWS V14.01,2013-01-05 04:21:00,
2013-01-04 22:25:00,28.8,20.3,30.22,SSW,196,6.0,13.0,70,0.00,,---,0.01,VWS V14.01,2013-01-05 04:25:00,
2013-01-04 22:26:00,28.8,20.3,30.22,South,180,7.0,13.0,70,0.00,,---,0.01,VWS V14.01,2013-01-05 04:26:00,
2013-01-04 22:30:00,28.7,20.2,30.23,SSW,202,7.0,13.0,70,0.00,,---,0.01,VWS V14.01,2013-01-05 04:30:00,
2013-01-04 22:31:00,28.7,20.5,30.23,South,183,5.0,9.0,71,0.00,,---,0.01,VWS V14.01,2013-01-05 04:31:00,
2013-01-04 22:35:00,28.7,20.5,30.23,SSW,203,7.0,13.0,71,0.00,,---,0.01,VWS V14.01,2013-01-05 04:35:00,
2013-01-04 22:36:00,28.6,20.1,30.23,SSW,207,4.0,13.0,70,0.00,,---,0.01,VWS V14.01,2013-01-05 04:36:00,
2013-01-04 22:40:00,28.4,21.8,30.23,SSW,205,10.0,13.0,76,0.00,,---,0.01,VWS V14.01,2013-01-05 04:40:00,
2013-01-04 22:41:00,28.3,20.1,30.23,SSW,197,7.0,13.0,71,0.00,,---,0.01,VWS V14.01,2013-01-05 04:41:00,
2013-01-04 22:45:00,28.2,20.4,30.23,South,181,9.0,13.0,72,0.00,,---,0.01,VWS V14.01,2013-01-05 04:45:00,
2013-01-04 22:46:00,28.1,20.2,30.23,SSW,204,9.0,13.0,72,0.00,,---,0.01,VWS V14.01,2013-01-05 04:46:00,
2013-01-04 22:50:00,28.2,20.4,30.23,SSW,202,9.0,13.0,72,0.00,,---,0.01,VWS V14.01,2013-01-05 04:50:00,
2013-01-04 22:51:00,28.2,20.4,30.23,SSW,202,9.0,13.0,72,0.00,,---,0.01,VWS V14.01,2013-01-05 04:51:00,
2013-01-04 22:55:00,27.9,20.1,30.23,SSW,198,5.0,13.0,72,0.00,,---,0.01,VWS V14.01,2013-01-05 04:55:00,
2013-01-04 22:56:00,27.9,20.1,30.23,South,188,6.0,13.0,72,0.00,,---,0.01,VWS V14.01,2013-01-05 04:56:00,
2013-01-04 22:57:00,27.9,20.1,30.23,South,190,11.0,13.0,72,0.00,,---,0.01,VWS V14.01,2013-01-05 04:57:00,
2013-01-04 23:00:00,27.8,20.0,30.23,South,191,5.0,13.0,72,0.00,,---,0.01,VWS V14.01,2013-01-05 05:00:00,
2013-01-04 23:03:00,27.8,20.0,30.23,South,179,7.0,7.0,72,0.00,,---,0.01,VWS V14.01,2013-01-05 05:03:00,
2013-01-04 23:05:00,27.8,20.0,30.23,SSW,194,5.0,8.0,72,0.00,,---,0.01,VWS V14.01,2013-01-05 05:05:00,
2013-01-04 23:08:00,27.8,20.0,30.23,South,180,6.0,9.0,72,0.00,,---,0.01,VWS V14.01,2013-01-05 05:08:00,
2013-01-04 23:10:00,27.8,20.0,30.23,South,184,5.0,9.0,72,0.00,,---,0.01,VWS V14.01,2013-01-05 05:10:00,
2013-01-04 23:13:00,27.7,19.9,30.23,SSW,195,9.0,11.0,72,0.00,,---,0.01,VWS V14.01,2013-01-05 05:13:00,
2013-01-04 23:20:00,27.7,19.9,30.23,South,177,9.0,11.0,72,0.00,,---,0.01,VWS V14.01,2013-01-05 05:20:00,
2013-01-04 23:25:00,27.8,20.0,30.22,SSW,195,6.0,11.0,72,0.00,,---,0.01,VWS V14.01,2013-01-05 05:25:00,
2013-01-04 23:26:00,27.8,20.0,30.22,South,186,5.0,11.0,72,0.00,,---,0.01,VWS V14.01,2013-01-05 05:26:00,
2013-01-04 23:30:00,27.8,20.0,30.22,SSW,200,5.0,11.0,72,0.00,,---,0.01,VWS V14.01,2013-01-05 05:30:00,
2013-01-04 23:31:00,27.8,20.0,30.22,SSW,194,3.0,6.0,72,0.00,,---,0.01,VWS V14.01,2013-01-05 05:31:00,
2013-01-04 23:35:00,27.7,19.9,30.22,SSW,192,4.0,6.0,72,0.00,,---,0.01,VWS V14.01,2013-01-05 05:35:00,
2013-01-04 23:36:00,27.6,19.8,30.22,South,190,5.0,6.0,72,0.00,,---,0.01,VWS V14.01,2013-01-05 05:36:00,
2013-01-04 23:40:00,27.6,19.8,30.22,SSW,198,4.0,9.0,72,0.00,,---,0.01,VWS V14.01,2013-01-05 05:40:00,
2013-01-04 23:41:00,27.6,19.8,30.22,SSW,198,5.0,9.0,72,0.00,,---,0.01,VWS V14.01,2013-01-05 05:41:00,
2013-01-04 23:45:00,27.7,19.9,30.22,SSW,194,4.0,10.0,72,0.00,,---,0.01,VWS V14.01,2013-01-05 05:45:00,
2013-01-04 23:46:00,27.7,19.9,30.22,SSW,196,6.0,10.0,72,0.00,,---,0.01,VWS V14.01,2013-01-05 05:46:00,
2013-01-04 23:51:00,27.8,20.0,30.22,SSW,198,7.0,10.0,72,0.00,,---,0.01,VWS V14.01,2013-01-05 05:51:00,
2013-01-04 23:56:00,27.8,20.0,30.22,SSW,203,5.0,10.0,72,0.00,,---,0.01,VWS V14.01,2013-01-05 05:56:00,